[[{"header":{"parameterUnit":"m.s-1","parameterCategory":1,"la1":30.6,"la2":29.2853,"lo1":-89.7004,"lo2":-87.6739,"dy":0.0162,"dx":0.0183,"nx":112,"ny":82,"refTime":"2026-02-24T12:00:00:Z","depth":0,"parameterNumber":2,"parameterNumberName":"U-component_of_WINDS"},"data":[0.0,0.0,0.0,0.0,0.0,0.0,0.0,0.0,0.0,0.0,0.0,0.0,0.0,0.0,0.0,0.0,0.0,0.0,0.0,0.0,0.0,0.0,0.0,0.0,0.0,0.0,0.0,0.0,0.0,0.0,0.0,0.0,0.0,0.0,0.0,0.0,0.0,0.0,0.0,0.0,0.0,0.0,0.0,0.0,0.0,0.0,0.0,0.0,0.0,0.0,0.0,0.0,0.0,0.0,0.0,0.0,0.0,0.0,0.0,0.0,0.0,0.0,0.0,0.0,0.0,0.0,0.0,0.0,0.0,0.0,0.0,0.0,0.0,0.0,0.0,0.0,0.0,0.0,0.0,0.0,0.0,0.0,0.0,0.0,0.0,0.0,0.0,0.0,0.0,0.0,0.0,2.09,2.2327,2.2948,2.2256,2.2093,2.1423,1.9984,0.0,0.0,0.0,0.0,0.0,0.0,0.0,0.0,0.0,0.0,0.0,0.0,0.0,0.0,0.0,0.0,0.0,0.0,0.0,0.0,0.0,0.0,0.0,0.0,0.0,0.0,0.0,0.0,0.0,0.0,0.0,0.0,0.0,0.0,0.0,0.0,0.0,0.0,0.0,0.0,0.0,0.0,0.0,0.0,0.0,0.0,0.0,0.0,0.0,0.0,0.0,0.0,0.0,0.0,0.0,0.0,0.0,0.0,0.0,0.0,0.0,0.0,0.0,0.0,0.0,0.0,0.0,0.0,0.0,0.0,0.0,0.0,0.0,0.0,0.0,0.0,0.0,0.0,0.0,0.0,0.0,0.0,0.0,0.0,0.0,0.0,0.0,0.0,0.0,0.0,0.0,0.0,0.0,0.0,0.0,0.0,0.0,0.0,0.0,0.0,0.0,0.0,0.0,0.0,2.083,2.2755,2.2663,2.2518,2.2593,2.2038,2.1428,2.0845,0.0,0.0,0.0,0.0,0.0,0.0,0.0,0.0,0.0,0.0,0.0,0.0,0.0,0.0,0.0,0.0,0.0,0.0,0.0,0.0,0.0,0.0,0.0,0.0,0.0,0.0,0.0,0.0,0.0,0.0,0.0,0.0,0.0,0.0,0.0,0.0,0.0,0.0,0.0,0.0,0.0,0.0,0.0,0.0,0.0,0.0,0.0,0.0,0.0,0.0,0.0,0.0,0.0,0.0,0.0,0.0,0.0,0.0,0.0,0.0,0.0,0.0,0.0,0.0,0.0,0.0,0.0,0.0,0.0,0.0,0.0,0.0,0.0,0.0,0.0,0.0,0.0,0.0,0.0,0.0,0.0,0.0,0.0,0.0,0.0,0.0,0.0,0.0,0.0,0.0,0.0,0.0,0.0,0.0,0.0,0.0,0.0,0.0,0.0,0.0,0.0,0.0,0.0,2.0938,2.2108,2.3808,2.3492,2.3105,2.2989,2.2092,2.1184,2.0344,1.8659,0.0,0.0,0.0,0.0,0.0,0.0,0.0,0.0,0.0,0.0,0.0,0.0,0.0,0.0,0.0,0.0,0.0,0.0,0.0,0.0,0.0,0.0,0.0,0.0,0.0,0.0,0.0,0.0,0.0,0.0,0.0,0.0,0.0,0.0,0.0,0.0,0.0,0.0,0.0,0.0,0.0,0.0,0.0,0.0,0.0,0.0,0.0,0.0,0.0,0.0,0.0,0.0,0.0,0.0,0.0,0.0,0.0,0.0,0.0,0.0,0.0,0.0,0.0,0.0,0.0,0.0,0.0,0.0,0.0,0.0,0.0,0.0,0.0,0.0,0.0,0.0,0.0,0.0,0.0,0.0,0.0,0.0,0.0,0.0,0.0,0.0,0.0,0.0,0.0,0.0,0.0,0.0,0.0,0.0,0.0,0.0,0.0,0.0,0.0,0.0,0.0,0.0,2.208,2.316,2.4368,2.4074,2.3671,2.3391,2.2233,2.1049,1.9904,1.8592,0.0,0.0,0.0,0.0,0.0,0.0,0.0,0.0,0.0,0.0,0.0,0.0,0.0,0.0,0.0,0.0,0.0,0.0,0.0,0.0,0.0,0.0,0.0,0.0,0.0,0.0,0.0,0.0,0.0,0.0,0.0,0.0,0.0,0.0,0.0,0.0,0.0,0.0,0.0,0.0,0.0,0.0,0.0,0.0,0.0,0.0,0.0,0.0,0.0,0.0,0.0,0.0,0.0,0.0,0.0,0.0,0.0,0.0,0.0,0.0,0.0,0.0,0.0,0.0,0.0,0.0,0.0,0.0,0.0,0.0,0.0,0.0,0.0,0.0,0.0,0.0,0.0,0.0,0.0,0.0,0.0,0.0,0.0,0.0,0.0,0.0,0.0,0.0,0.0,0.0,0.0,0.0,0.0,0.0,0.0,0.0,0.0,0.0,0.0,0.0,0.0,0.0,2.208,2.316,2.4368,2.3868,2.3559,2.3836,2.2463,2.1206,2.0314,1.9059,0.0,0.0,0.0,0.0,0.0,0.0,0.0,0.0,0.0,0.0,0.0,0.0,0.0,0.0,0.0,0.0,0.0,0.0,0.0,0.0,0.0,0.0,0.0,0.0,0.0,0.0,0.0,0.0,0.0,0.0,0.0,0.0,0.0,0.0,0.0,0.0,0.0,0.0,0.0,0.0,0.0,0.0,0.0,0.0,0.0,0.0,0.0,0.0,0.0,0.0,0.0,0.0,0.0,0.0,0.0,0.0,0.0,0.0,0.0,0.0,0.0,0.0,0.0,0.0,0.0,0.0,0.0,0.0,0.0,0.0,0.0,0.0,0.0,0.0,0.0,0.0,0.0,0.0,0.0,0.0,0.0,0.0,0.0,0.0,0.0,0.0,0.0,0.0,0.0,0.0,0.0,0.0,0.0,0.0,0.0,0.0,0.0,0.0,0.0,0.0,0.0,0.0,2.2033,2.3225,0.0,2.3274,2.2833,2.2955,2.1408,2.027,1.9953,0.0,0.0,0.0,0.0,0.0,0.0,0.0,0.0,0.0,0.0,0.0,0.0,0.0,0.0,0.0,0.0,0.0,0.0,0.0,0.0,0.0,0.0,0.0,0.0,0.0,0.0,0.0,0.0,0.0,0.0,0.0,0.0,0.0,0.0,0.0,0.0,0.0,0.0,0.0,0.0,0.0,0.0,0.0,0.0,0.0,0.0,0.0,0.0,0.0,0.0,0.0,0.0,0.0,0.0,0.0,0.0,0.0,0.0,0.0,0.0,0.0,0.0,0.0,0.0,0.0,0.0,0.0,0.0,0.0,0.0,0.0,0.0,0.0,0.0,0.0,0.0,0.0,0.0,0.0,0.0,0.0,0.0,0.0,0.0,0.0,0.0,0.0,0.0,0.0,0.0,0.0,0.0,0.0,0.0,0.0,0.0,0.0,0.0,0.0,0.0,0.0,0.0,2.0904,2.218,2.3113,0.0,2.3092,2.2564,2.2416,2.0867,1.9754,1.9393,0.0,0.0,0.0,0.0,0.0,0.0,0.0,0.0,0.0,0.0,0.0,0.0,0.0,0.0,0.0,0.0,0.0,0.0,0.0,0.0,0.0,0.0,0.0,0.0,0.0,0.0,0.0,0.0,0.0,0.0,0.0,0.0,0.0,0.0,0.0,0.0,0.0,0.0,0.0,0.0,0.0,0.0,0.0,0.0,0.0,0.0,0.0,0.0,0.0,0.0,0.0,0.0,0.0,0.0,0.0,0.0,0.0,0.0,0.0,0.0,0.0,0.0,0.0,0.0,0.0,0.0,0.0,0.0,0.0,0.0,0.0,0.0,0.0,0.0,0.0,0.0,0.0,0.0,0.0,0.0,0.0,0.0,0.0,0.0,0.0,0.0,0.0,0.0,0.0,0.0,0.0,0.0,0.0,0.0,0.0,0.0,0.0,0.0,0.0,0.0,0.0,0.0,2.2166,2.2482,2.283,2.3968,2.349,2.2898,2.2434,2.1104,1.9848,0.0,0.0,0.0,0.0,0.0,0.0,0.0,0.0,0.0,0.0,0.0,0.0,0.0,0.0,0.0,0.0,0.0,0.0,0.0,0.0,0.0,0.0,0.0,0.0,0.0,0.0,0.0,0.0,0.0,0.0,0.0,0.0,0.0,0.0,0.0,0.0,0.0,0.0,0.0,0.0,0.0,0.0,0.0,0.0,0.0,0.0,0.0,0.0,0.0,0.0,0.0,0.0,0.0,0.0,0.0,0.0,0.0,0.0,0.0,0.0,0.0,0.0,0.0,0.0,0.0,0.0,0.0,0.0,0.0,0.0,0.0,0.0,0.0,0.0,0.0,0.0,0.0,0.0,0.0,0.0,0.0,0.0,0.0,0.0,0.0,0.0,0.0,0.0,0.0,0.0,0.0,0.0,0.0,0.0,0.0,0.0,0.0,0.0,0.0,0.0,0.0,0.0,0.0,0.0,2.2012,2.2314,2.3423,2.3106,2.2569,2.196,2.109,2.0035,1.8777,0.0,0.0,0.0,0.0,0.0,0.0,0.0,0.0,0.0,0.0,0.0,0.0,0.0,0.0,0.0,0.0,0.0,0.0,0.0,0.0,0.0,0.0,0.0,0.0,0.0,0.0,0.0,0.0,0.0,0.0,0.0,0.0,0.0,0.0,0.0,0.0,0.0,0.0,0.0,0.0,0.0,0.0,0.0,0.0,0.0,0.0,0.0,0.0,0.0,0.0,0.0,0.0,0.0,0.0,0.0,0.0,0.0,0.0,0.0,0.0,0.0,0.0,0.0,0.0,0.0,0.0,0.0,0.0,0.0,0.0,0.0,0.0,0.0,0.0,0.0,0.0,0.0,0.0,0.0,0.0,0.0,0.0,0.0,0.0,0.0,0.0,0.0,0.0,0.0,0.0,0.0,0.0,0.0,0.0,0.0,0.0,0.0,0.0,0.0,0.0,0.0,0.0,2.1736,2.1867,2.2134,2.33,2.2988,2.2433,2.1754,2.1086,2.0001,1.8401,0.0,0.0,0.0,0.0,0.0,0.0,0.0,0.0,0.0,0.0,0.0,0.0,0.0,0.0,0.0,0.0,0.0,0.0,0.0,0.0,0.0,0.0,0.0,0.0,0.0,0.0,0.0,0.0,0.0,0.0,0.0,0.0,0.0,0.0,0.0,0.0,0.0,0.0,0.0,0.0,0.0,0.0,0.0,0.0,0.0,0.0,0.0,0.0,0.0,0.0,0.0,0.0,0.0,0.0,0.0,0.0,0.0,0.0,0.0,0.0,0.0,0.0,0.0,0.0,0.0,0.0,0.0,0.0,0.0,0.0,0.0,0.0,0.0,0.0,0.0,0.0,0.0,0.0,0.0,0.0,0.0,0.0,0.0,0.0,0.0,0.0,0.0,0.0,0.0,0.0,0.0,0.0,0.0,0.0,0.0,0.0,0.0,0.0,0.0,0.0,0.0,0.0,2.1895,2.1949,2.2188,2.346,2.3112,2.2513,2.1854,2.1186,1.9926,1.7915,0.0,0.0,0.0,0.0,0.0,0.0,0.0,0.0,0.0,0.0,0.0,0.0,0.0,0.0,0.0,0.0,0.0,0.0,0.0,0.0,0.0,0.0,0.0,0.0,0.0,0.0,0.0,0.0,0.0,0.0,0.0,0.0,0.0,0.0,0.0,0.0,0.0,0.0,0.0,0.0,0.0,0.0,0.0,0.0,0.0,0.0,0.0,0.0,0.0,0.0,0.0,0.0,0.0,0.0,0.0,0.0,0.0,0.0,0.0,0.0,1.6396,0.0,0.0,0.0,0.0,0.0,0.0,0.0,0.0,0.0,0.0,0.0,0.0,0.0,0.0,0.0,0.0,0.0,0.0,0.0,0.0,0.0,0.0,0.0,0.0,0.0,0.0,0.0,0.0,0.0,0.0,0.0,0.0,0.0,0.0,0.0,0.0,0.0,0.0,0.0,0.0,0.0,2.1895,2.1949,2.2188,2.346,2.3475,2.3156,2.2538,2.1869,2.0632,1.8619,0.0,0.0,0.0,0.0,0.0,0.0,0.0,0.0,0.0,0.0,0.0,0.0,0.0,0.0,0.0,0.0,0.0,0.0,0.0,0.0,0.0,0.0,0.0,0.0,0.0,0.0,0.0,0.0,0.0,0.0,0.0,0.0,0.0,0.0,0.0,0.0,0.0,0.0,0.0,0.0,0.0,0.0,0.0,0.0,0.0,0.0,0.0,0.0,0.0,0.0,0.0,0.0,0.0,0.0,0.0,0.0,0.0,0.0,0.0,0.0,0.0,1.7061,0.0,0.0,0.0,0.0,0.0,0.0,0.0,0.0,0.0,0.0,0.0,0.0,0.0,0.0,0.0,0.0,0.0,0.0,0.0,0.0,0.0,0.0,0.0,0.0,0.0,0.0,0.0,0.0,0.0,0.0,0.0,0.0,0.0,0.0,0.0,0.0,0.0,0.0,0.0,0.0,2.1725,2.2109,2.2543,2.349,2.3595,2.3366,2.2748,2.2388,2.1315,1.931,1.8222,0.0,0.0,0.0,0.0,0.0,0.0,0.0,0.0,0.0,0.0,0.0,0.0,0.0,0.0,0.0,0.0,0.0,0.0,0.0,0.0,0.0,0.0,0.0,0.0,0.0,0.0,0.0,0.0,0.0,0.0,0.0,0.0,0.0,0.0,0.0,0.0,0.0,0.0,0.0,0.0,0.0,0.0,0.0,0.0,0.0,0.0,0.0,0.0,0.0,0.0,0.0,0.0,0.0,1.9183,1.9673,2.0075,1.9635,1.9685,2.0049,1.9158,1.8618,1.8317,0.0,0.0,0.0,0.0,0.0,0.0,0.0,0.0,0.0,0.0,0.0,0.0,0.0,0.0,0.0,0.0,0.0,0.0,0.0,0.0,0.0,0.0,0.0,0.0,0.0,2.012,2.0059,0.0,0.0,0.0,0.0,0.0,0.0,0.0,0.0,0.0,0.0,0.0,0.0,2.1525,2.2298,2.2932,2.3546,2.3595,2.3396,2.2897,2.2763,2.1894,1.9998,1.9145,1.7924,0.0,0.0,0.0,0.0,0.0,0.0,0.0,0.0,0.0,0.0,0.0,0.0,0.0,0.0,0.0,0.0,0.0,0.0,0.0,0.0,0.0,0.0,0.0,0.0,0.0,0.0,0.0,0.0,0.0,0.0,0.0,0.0,1.4984,1.5527,0.0,0.0,0.0,0.0,0.0,0.0,0.0,0.0,0.0,0.0,0.0,0.0,0.0,0.0,1.8556,1.9698,2.0302,2.0377,2.0917,2.1218,2.1268,2.1206,2.1218,2.1268,2.113,0.0,1.8895,1.882,0.0,0.0,0.0,0.0,0.0,0.0,0.0,0.0,0.0,0.0,0.0,0.0,0.0,0.0,0.0,0.0,0.0,0.0,0.0,0.0,0.0,0.0,2.0028,1.8711,1.953,2.0243,0.0,1.9065,1.9235,1.8568,1.7496,0.0,0.0,0.0,0.0,0.0,0.0,0.0,2.1525,2.2298,2.2932,2.3546,2.3595,2.3565,2.349,2.2992,2.2094,2.0653,1.9397,1.832,1.7474,1.6301,0.0,0.0,0.0,0.0,0.0,0.0,0.0,0.0,0.0,0.0,0.0,0.0,0.0,0.0,0.0,0.0,0.0,0.0,0.0,0.0,0.0,0.0,0.0,0.0,0.0,0.0,0.0,0.0,0.0,1.5103,1.5881,1.6122,1.6457,1.6522,0.0,0.0,0.0,0.0,0.0,0.0,0.0,0.0,0.0,1.833,1.917,1.9861,2.0401,2.1192,2.1922,2.2562,2.2786,2.3062,2.3349,2.3349,2.3349,2.3349,2.3349,2.2774,2.1705,2.0464,1.9673,1.9221,0.0,0.0,0.0,0.0,1.9183,1.9196,1.9823,1.9861,0.0,0.0,0.0,0.0,0.0,0.0,0.0,0.0,0.0,0.0,0.0,0.0,0.0,2.0218,2.1192,2.2152,2.1651,2.174,2.1485,0.0,1.9053,1.8484,1.8768,0.0,0.0,0.0,0.0,0.0,2.2139,2.3131,2.3719,2.361,2.3928,2.4018,2.3625,2.3366,2.2812,2.1874,2.0917,1.9914,1.8867,1.7932,1.7079,0.0,0.0,0.0,0.0,0.0,0.0,0.0,0.0,0.0,0.0,0.0,0.0,0.0,0.0,0.0,0.0,0.0,0.0,0.0,0.0,0.0,0.0,0.0,0.0,0.0,0.0,0.0,0.0,1.5954,1.6674,1.6523,1.7149,1.7363,0.0,0.0,0.0,0.0,0.0,0.0,1.9158,1.9472,1.9823,2.0225,2.1094,2.1747,2.2148,2.2673,2.3361,2.4189,2.4189,2.4402,2.4804,2.4804,2.4804,2.4804,2.4804,2.4578,2.4067,2.2273,2.1295,2.0867,2.0414,2.015,2.01,2.0691,2.0703,2.0577,2.1568,2.1644,2.1243,2.0803,0.0,2.0062,1.912,0.0,0.0,0.0,0.0,2.1164,2.0956,2.1305,2.166,2.1529,2.2412,2.3324,2.3553,2.3606,2.3172,0.0,2.0647,2.0013,2.0178,0.0,0.0,0.0,0.0,2.2363,2.2868,2.4048,2.4649,2.4163,2.4571,2.4575,2.3913,2.3864,2.3535,2.2748,2.2228,2.1435,2.0253,1.939,1.8484,1.7496,0.0,0.0,0.0,0.0,0.0,0.0,0.0,0.0,0.0,0.0,0.0,0.0,0.0,0.0,0.0,0.0,0.0,0.0,0.0,0.0,0.0,0.0,0.0,0.0,0.0,0.0,0.0,0.0,0.0,1.6574,1.7477,0.0,0.0,0.0,0.0,1.892,1.9384,1.9698,1.9761,2.0791,2.1394,2.1419,2.2987,2.3853,2.3866,2.4402,2.4704,2.4766,2.4766,2.4763,2.4804,2.4804,2.4804,2.4804,2.4804,2.4791,2.4716,2.4092,2.2902,2.1457,2.1432,2.1093,2.0717,2.1256,2.1757,2.2257,2.2819,2.3007,2.297,2.2945,2.2245,2.1306,2.0742,2.0214,0.0,0.0,2.0669,2.086,2.1333,2.186,2.2124,2.162,2.1939,2.2593,2.3414,2.3598,2.3568,0.0,2.1949,2.0847,2.1485,0.0,2.0832,2.151,2.2682,2.352,2.355,2.4717,2.5543,2.5498,2.5528,2.5289,2.4605,2.4545,2.4018,2.2778,2.2658,2.2333,2.162,2.0342,1.9618,1.9549,1.7646,0.0,0.0,0.0,0.0,0.0,0.0,0.0,0.0,0.0,0.0,0.0,0.0,0.0,0.0,0.0,0.0,0.0,0.0,0.0,0.0,0.0,0.0,0.0,0.0,0.0,0.0,0.0,0.0,1.813,1.9108,0.0,0.0,1.9296,1.9811,2.0552,2.079,2.1355,2.2447,2.2887,2.3263,2.36,2.4202,2.4678,2.5021,2.5222,2.5511,2.5891,2.5891,2.608,2.6389,2.6055,2.6092,2.6389,2.6042,2.5891,2.5879,2.5695,2.4824,2.3612,2.3612,2.3514,2.3364,2.3549,2.3738,2.3938,2.4139,2.4186,2.4136,2.3788,2.316,2.2495,2.2295,2.2372,2.2548,2.2749,2.3062,2.3389,2.3562,2.3763,2.3863,2.3662,2.3869,2.4184,2.4496,2.4694,2.4815,2.4815,2.3951,2.3289,2.3528,2.3016,2.2791,2.3479,2.3947,2.4406,2.4825,2.5674,2.6078,2.5648,2.5989,2.5974,2.5304,2.4844,2.441,2.3958,2.352,2.2992,2.2363,2.1465,2.0582,1.9723,1.8147,1.7242,0.0,0.0,0.0,0.0,0.0,0.0,0.0,0.0,0.0,0.0,0.0,0.0,0.0,0.0,0.0,0.0,0.0,0.0,0.0,0.0,0.0,0.0,0.0,0.0,0.0,0.0,1.9346,1.956,2.0552,2.108,2.0676,2.0991,2.1531,2.2284,2.251,2.31,2.4202,2.4443,2.4707,2.5055,2.5431,2.5812,2.618,2.6352,2.664,2.7052,2.7052,2.7223,2.7562,2.6997,2.6947,2.7286,2.6909,2.6776,2.6788,2.6977,2.659,2.5858,2.5293,2.4954,2.4829,2.5005,2.5067,2.5093,2.531,2.5247,2.5005,2.4657,2.4139,2.3672,2.3672,2.3948,2.4264,2.4264,2.4528,2.4804,2.4804,2.4804,2.4804,2.4804,2.4899,2.5149,2.5696,2.577,2.5902,2.6439,2.5677,2.4933,2.4933,2.4571,2.4433,2.4874,2.5139,2.5438,2.5884,2.6524,2.6764,2.6318,2.6674,2.6674,2.5989,2.5319,2.4844,2.4608,2.3973,2.3336,2.2718,2.2049,2.1181,2.0058,1.8491,1.7705,1.7705,0.0,0.0,0.0,0.0,0.0,0.0,0.0,0.0,0.0,0.0,0.0,0.0,0.0,0.0,0.0,0.0,0.0,0.0,0.0,0.0,0.0,0.0,0.0,1.7511,1.8869,2.0113,2.0729,2.1746,2.237,2.237,2.3389,2.4029,2.4054,2.4528,2.4842,2.4854,2.536,2.5649,2.5649,2.6746,2.7324,2.7324,2.7846,2.8109,2.8109,2.8109,2.8109,2.8084,2.7532,2.7298,2.7298,2.7286,2.7273,2.7324,2.7833,2.8059,2.7921,2.6302,2.5356,2.4967,2.5485,2.5674,2.5749,2.6348,2.6168,2.5674,2.5649,2.5293,2.4863,2.4867,2.4854,2.4854,2.4854,2.4854,2.4854,2.4854,2.4854,2.4854,2.4854,2.4842,2.5256,2.6846,2.6693,2.6708,2.829,2.7041,2.5708,2.5663,2.5663,2.5663,2.5663,2.6213,0.0,2.6629,2.721,2.76,2.76,2.76,2.7345,2.6689,2.6004,2.5319,2.4668,2.3958,2.3321,2.2748,2.2064,2.1386,2.0733,1.882,1.781,1.7795,0.0,0.0,0.0,0.0,0.0,0.0,0.0,0.0,0.0,0.0,0.0,0.0,0.0,0.0,0.0,0.0,0.0,0.0,0.0,0.0,0.0,0.0,1.9786,1.9786,2.084,2.1983,2.2962,2.3703,2.4114,2.4114,2.4402,2.4741,2.5121,2.5297,2.5561,2.6005,2.6545,2.6834,2.6834,2.7507,2.7883,2.7883,2.8034,2.8109,2.8109,2.8109,2.8109,2.8084,2.7532,2.7298,2.7273,2.6901,2.6713,2.6738,2.6889,2.7173,2.7507,2.7444,2.7331,2.72,2.7356,2.7419,2.7444,2.7595,2.7544,2.7356,2.6972,2.6728,2.6545,2.6155,2.603,2.603,2.603,2.603,2.603,2.603,2.603,2.603,2.603,2.5703,2.5672,2.6754,2.6952,2.7222,2.8263,2.8484,2.8186,2.7225,2.7048,2.7048,2.7048,2.721,0.0,2.733,2.748,2.76,2.76,2.76,2.7525,2.7345,2.6258,2.5528,2.5349,2.383,2.3067,2.3336,2.2288,2.1605,2.1425,2.0887,2.0354,0.0,0.0,0.0,0.0,0.0,0.0,0.0,0.0,0.0,0.0,0.0,0.0,0.0,0.0,0.0,0.0,0.0,0.0,0.0,0.0,0.0,0.0,2.0214,2.162,2.2324,2.2761,2.3427,2.4531,2.4958,2.5231,2.5485,2.5724,2.5975,2.6293,2.6515,2.6791,2.7148,2.7474,2.765,2.765,2.816,2.843,2.843,2.8699,2.8812,2.8812,2.8561,2.843,2.8405,2.7663,2.7298,0.0,2.6959,2.6839,2.6851,2.7072,2.7361,0.0,0.0,0.0,0.0,0.0,2.8109,2.8109,2.8109,2.8109,2.8059,2.7733,2.765,2.7587,2.7261,2.7173,2.7123,2.6901,2.6839,2.6788,2.6549,2.6499,2.6499,2.6499,2.6235,2.6219,2.7056,2.7108,2.7341,2.854,2.8924,0.0,2.8508,2.8438,2.8438,2.8438,2.8199,2.8021,2.8021,2.7779,2.76,2.76,2.76,2.76,2.76,2.6629,0.0,0.0,0.0,2.3415,2.3231,2.2243,0.0,0.0,0.0,0.0,0.0,0.0,0.0,0.0,2.098,2.1201,0.0,0.0,0.0,0.0,0.0,0.0,0.0,0.0,0.0,0.0,0.0,0.0,0.0,0.0,0.0,0.0,2.1775,2.3123,2.4678,2.4594,2.472,2.5674,2.5787,2.603,2.6625,2.7097,2.7386,2.7386,2.7821,2.8109,2.8109,0.0,0.0,0.0,0.0,2.9007,2.9007,2.9528,2.9767,2.9691,2.9157,2.8844,2.8693,2.772,2.7273,2.7211,2.7211,2.7211,2.7248,2.772,2.7959,2.7971,2.7544,2.7758,2.8285,2.8222,2.8235,2.8298,2.8298,0.0,0.0,2.8204,2.8197,2.8185,2.8122,2.8109,2.7996,2.7462,2.7298,2.7173,2.6637,2.6499,2.6499,2.6499,2.6499,2.6714,2.7534,2.7232,2.7332,2.9079,2.8944,2.8798,2.9666,2.9698,2.9593,2.9593,2.9099,2.8682,2.8607,2.8081,2.769,2.76,0.0,0.0,2.76,2.6988,2.6348,2.5737,2.5083,2.4167,2.2962,2.2423,2.2143,2.2143,2.2722,2.2928,2.2741,2.4035,2.4347,2.3696,2.2648,2.2742,0.0,0.0,0.0,0.0,0.0,0.0,0.0,0.0,0.0,0.0,0.0,0.0,0.0,0.0,0.0,2.0799,2.2834,2.4578,2.5335,2.6138,2.6746,2.6947,2.6972,2.7198,2.7733,2.7883,2.7946,2.7946,2.8047,2.8109,2.8109,2.8505,0.0,2.8756,2.9327,2.9628,2.9628,2.9741,2.9566,2.907,0.0,0.0,2.7595,2.7399,2.7047,2.665,2.665,2.665,2.6663,2.6763,2.706,2.7487,2.7821,2.8574,2.9415,2.8919,2.9045,2.9465,2.9465,2.9465,2.939,2.8894,2.8756,2.8668,2.8235,2.8109,0.0,2.7462,2.7298,2.7173,2.6637,2.6499,2.6499,2.6499,2.6499,2.6714,2.7534,2.7594,2.801,2.9765,2.9996,3.0161,3.0978,3.0283,2.9593,2.9593,2.9488,2.9219,2.8667,2.8487,2.8201,2.766,2.76,2.76,2.76,2.6988,2.6542,2.6408,2.5779,2.5049,2.4261,2.4631,2.4852,2.4852,2.4971,2.4725,2.4107,2.4815,2.5144,2.5103,2.4941,2.4986,0.0,0.0,0.0,0.0,0.0,0.0,0.0,0.0,0.0,0.0,0.0,1.6245,0.0,0.0,2.1409,2.2052,2.4116,2.5841,2.6381,2.7168,2.7595,2.7336,2.755,2.7808,2.8084,2.8329,2.8493,2.8493,2.8787,2.895,2.895,2.9195,2.9346,2.9346,2.9641,2.9792,2.9792,2.9503,2.9195,2.8888,2.8355,2.7821,2.7286,2.701,2.6751,2.6499,2.6499,2.665,2.6909,2.7185,2.7607,2.8109,2.8109,2.8448,2.8913,2.8605,2.8699,2.895,2.895,2.895,2.89,2.8593,2.8493,2.8442,2.8185,2.8109,2.7996,2.7462,2.7298,2.7173,2.6637,2.6499,2.6499,2.6499,2.6499,2.6607,2.7007,2.7095,2.7484,2.8748,2.9348,2.9919,3.0762,3.0714,3.0538,3.0538,3.0268,2.9937,2.9594,2.8996,2.8472,2.8141,2.7809,2.7735,2.8066,2.7482,2.6958,2.6629,2.6288,2.5959,2.5603,2.6243,2.6401,2.5963,2.6283,2.586,2.4696,2.5675,2.6217,2.6356,2.6759,2.678,0.0,0.0,0.0,0.0,0.0,0.0,0.0,0.0,1.4248,1.5131,1.6279,1.7341,1.8103,2.0491,2.2631,2.3515,2.5348,2.6851,2.7386,2.7921,2.8097,2.7657,2.7996,2.8292,2.8423,2.8819,2.907,2.907,2.9528,2.9792,2.9792,2.9792,2.9792,2.9792,2.9792,2.9792,2.9792,2.9327,2.9019,2.8888,2.8021,2.7562,2.7449,2.7014,2.6813,2.6813,2.6813,2.7047,2.7499,2.7921,2.8342,2.8706,2.8267,2.8109,2.8104,2.8217,2.8335,2.8436,2.8436,2.8436,2.8436,2.8436,2.8436,2.8436,2.8436,2.8436,2.8298,2.765,2.7462,2.7311,2.6663,2.6499,2.6499,2.6499,2.6499,2.6499,2.6499,2.6499,2.6731,2.7537,2.8266,2.9081,3.0118,3.0837,3.1322,3.1467,3.0927,3.0462,3.0342,2.9325,2.8547,2.8412,2.7916,2.7824,2.8366,2.8021,2.7557,2.7021,2.7108,2.7183,2.7183,2.7705,2.7663,2.6947,2.7467,2.6947,2.5357,2.658,2.7234,2.7326,2.8073,2.8254,1.4658,1.4274,1.4013,1.3977,1.4274,1.4799,0.0,0.0,1.6056,1.693,1.752,1.8288,1.9599,2.1479,2.3293,2.4754,2.6246,2.7399,2.7934,2.8467,2.8794,2.8731,2.8781,2.9019,2.9553,2.9654,2.9691,2.9691,2.9754,2.9792,2.9792,2.9792,2.9792,2.9792,2.9792,2.9792,2.9792,2.9729,2.944,2.8888,2.8781,2.8467,2.8009,2.7946,2.7921,2.7921,2.7921,2.7959,2.8021,2.8084,2.8147,2.8185,2.8134,2.8109,2.816,2.8631,2.9145,2.9603,2.9603,2.9603,2.9603,2.9603,2.9603,2.9603,2.9603,2.9603,2.9377,2.831,2.8009,2.777,2.6763,2.6499,2.6499,2.6499,2.6499,2.6499,2.6499,2.6499,2.6731,2.7537,2.7786,2.8363,3.0011,3.0374,3.0673,3.1394,3.0927,3.0313,2.9773,2.9069,2.838,2.7779,2.7645,2.763,2.7705,2.8186,2.8457,2.8382,2.8934,2.9264,2.9264,2.9338,2.9328,2.9232,2.9307,2.8549,2.6948,2.7583,2.7804,2.7669,2.8511,2.935,1.5606,1.5205,0.0,0.0,1.5386,1.6,1.6377,1.6666,1.7086,1.7939,1.9349,2.0629,2.1203,2.3592,2.5588,0.0,2.725,2.8304,2.853,2.9057,2.9283,2.8938,2.9208,2.9528,2.9786,2.9792,2.9792,2.9792,2.9792,2.9792,2.9792,2.9792,2.9792,2.9792,2.9792,2.9792,2.9792,2.9453,2.9145,2.8888,2.858,2.8317,2.8109,2.8109,2.8109,2.8122,2.843,2.8568,2.8593,2.895,2.9089,2.9089,2.9089,2.9089,2.9038,2.8612,2.858,2.8812,2.8812,2.8812,2.8812,2.8812,2.8812,2.8812,2.8812,2.8812,2.8712,2.8235,2.8109,2.7996,2.7562,2.7198,2.6977,2.6977,2.6725,2.6499,2.6499,2.6499,2.6607,2.6939,2.7384,2.8084,2.9333,2.9965,3.0404,3.0762,3.0641,3.0417,3.0162,2.922,2.8338,2.766,2.7959,2.8021,2.763,2.856,2.9024,2.8622,2.9564,3.0118,3.0118,3.0507,3.049,3.0031,3.0002,2.9432,2.8257,2.8474,2.8533,2.846,2.8828,2.924,1.5772,0.0,0.0,1.5698,1.6404,1.7087,1.7194,1.7598,1.8115,1.882,2.0568,2.2094,2.2487,2.4943,0.0,2.7009,2.8057,2.8969,2.912,2.9528,2.9578,2.8982,2.9283,2.9553,2.9553,2.9691,2.9792,2.9792,2.9792,2.9792,2.9792,2.9792,2.9792,2.9792,2.9792,2.9792,2.9792,2.9377,2.9145,2.9145,2.8762,2.8574,2.8574,2.8574,2.8574,2.8599,2.8969,2.9145,2.9183,2.9616,2.9792,2.9792,2.9792,2.9792,2.9691,2.8875,2.8574,2.8574,2.8574,2.8574,2.8574,2.8574,2.8574,2.8574,2.8574,2.8574,2.8536,2.8367,2.8317,2.8298,2.8147,2.7808,2.7507,2.7507,2.7223,2.6901,2.6751,2.6725,2.6675,2.6524,2.6973,2.7637,2.8492,2.916,2.975,3.0238,3.0221,3.0169,3.0169,2.925,2.8412,2.7929,2.8141,2.8126,2.7645,2.865,2.9204,2.8891,2.9894,3.0582,3.0762,3.1241,3.1234,3.0644,3.0404,2.9873,2.9002,2.9002,2.8958,2.8868,2.9198,2.9306,0.0,0.0,1.56,1.6443,1.7318,1.8059,1.8451,1.8916,1.9355,1.9785,2.0691,2.1848,2.3205,2.4767,2.6335,2.7814,2.8537,2.9107,2.9691,2.9779,2.9578,2.8982,2.8932,2.8932,0.0,2.9465,2.9792,2.9792,2.9792,2.9792,2.9792,2.9792,2.9792,2.9792,2.9792,2.9792,2.9792,2.9779,2.9767,2.9767,2.9754,2.9741,2.9741,2.9741,2.9741,2.9741,2.9767,2.9767,2.9767,2.9779,2.9792,2.9792,2.9792,2.9792,2.9792,2.9754,2.9741,2.9741,2.9741,2.9741,2.9741,2.9741,2.9741,2.9741,2.9741,2.9741,2.9628,2.9045,2.8881,2.8769,2.8247,2.8097,2.8084,2.8084,2.8059,2.7908,2.7386,2.7273,2.7123,2.66,2.6521,2.6799,2.7604,2.7769,2.8347,3.0042,2.9751,2.9347,2.9347,2.8908,2.8592,2.8562,2.8006,2.7615,2.76,2.8231,2.8891,2.9518,3.0162,3.0792,3.1451,3.1496,3.1496,3.1452,3.0688,2.9873,2.9002,2.9002,2.8842,2.8535,2.9724,3.0077,0.0,0.0,1.6924,1.775,1.8625,1.9288,1.9435,1.9824,2.0195,2.0341,2.1668,2.3058,2.388,2.5543,2.7197,2.8424,2.8781,2.9107,2.9716,2.9792,2.944,2.848,2.9051,0.0,0.0,0.0,0.0,2.9767,2.9792,2.9792,2.9792,2.9792,2.9792,2.9792,2.9792,2.9792,2.9792,2.9792,2.9792,2.9792,2.9792,2.9792,2.9792,2.9792,2.9792,2.9792,2.9792,2.9792,2.9792,2.9792,2.9792,2.9792,2.9792,2.9792,2.9792,2.9792,2.9792,2.9792,2.9792,2.9792,2.9792,2.9792,2.9792,2.9792,2.9792,2.9792,2.9754,2.9553,2.9503,2.9465,2.9277,2.8919,2.8631,2.8631,2.8355,2.8059,2.7871,2.7821,2.777,2.7613,2.7273,2.7294,2.8091,2.794,2.81,2.9254,2.9811,2.995,2.9551,2.9356,2.9264,2.9264,2.9054,2.8933,2.8933,2.949,2.9953,3.0178,3.0807,3.1025,3.0718,3.0688,3.0419,2.9858,2.9582,2.9286,2.9002,2.9002,2.8635,2.7983,2.8392,2.8519,1.6703,1.7275,1.7852,1.883,1.9493,1.9932,2.0107,2.0381,2.0605,2.0605,2.1987,2.331,2.3653,2.535,2.7042,2.8141,2.8493,2.8881,2.9679,2.9792,2.9453,2.8493,2.9019,0.0,0.0,0.0,0.0,2.9741,2.9792,2.9792,2.9792,2.9792,2.9792,2.9792,2.9792,2.9792,2.9792,2.9792,2.9792,2.9792,2.9792,2.9792,2.9792,2.9792,2.9792,2.9792,2.9792,2.9792,2.9792,2.9792,2.9792,2.9792,2.9792,2.9792,2.9817,3.0018,3.0093,3.0055,2.9867,2.9792,2.9792,2.9792,2.9792,2.9792,2.9792,2.9792,2.9792,2.9792,2.9792,2.9792,2.9792,2.9515,2.922,2.922,2.8963,2.8649,2.843,2.838,2.8329,2.8147,2.7821,2.7753,2.8268,2.8154,2.8279,2.916,2.9675,2.9944,2.9849,2.9891,2.9922,2.9922,2.9728,2.9593,2.9593,2.9967,3.0268,3.0492,3.0897,3.1011,3.0748,3.0733,3.0329,2.9473,2.916,2.886,2.854,2.886,2.8716,2.8182,2.9015,2.9256,1.7253,1.7793,1.8391,1.9649,1.9942,2.0059,2.0517,2.0615,2.0615,2.0634,2.1734,2.2704,0.0,0.0,2.595,2.7085,2.772,2.8499,2.9628,2.9792,2.9578,0.0,0.0,0.0,0.0,0.0,0.0,2.9792,0.0,2.9792,2.9792,2.9792,2.9792,2.9792,2.9792,2.9792,2.9792,2.9792,2.9792,2.9792,2.9792,2.9792,2.9792,2.9792,2.9792,2.9792,2.9792,2.9792,2.9792,2.9792,2.9817,2.9829,2.9829,2.9854,2.993,3.0437,3.0638,3.0563,3.0055,2.988,2.988,2.988,2.988,2.988,2.988,2.988,2.9867,2.9842,2.9829,2.9829,2.9804,2.9792,2.9792,2.9792,2.9792,2.9641,2.907,2.8957,2.8794,2.8298,2.816,2.8134,2.8091,2.8318,2.8764,2.9597,2.9318,2.9345,3.0193,3.041,3.0496,3.0496,3.0015,2.9698,2.9698,2.9698,2.9937,3.0522,3.0538,3.0809,3.135,3.1409,3.1029,3.0118,2.9333,2.8508,2.7637,2.846,2.8889,2.8962,3.1207,3.182,1.8494,1.9111,1.9649,2.0635,2.0644,2.0537,2.0937,2.083,2.07,2.0985,2.1929,2.2667,0.0,0.0,0.0,2.6587,2.7499,0.0,2.9628,2.9792,0.0,0.0,0.0,2.9998,2.9616,3.0294,0.0,0.0,3.003,2.9792,2.9792,2.9792,2.9792,2.9792,2.9792,2.9792,2.9792,2.9792,2.9792,2.9792,2.9792,2.9792,2.9792,2.9792,2.9792,2.9792,2.9792,2.9792,2.9792,2.9792,3.003,3.0387,3.0387,3.0645,3.0997,3.1148,3.1198,3.1173,3.1055,3.0984,3.0984,3.0984,3.0984,3.0984,3.0984,3.0984,3.0896,3.052,3.0387,3.0306,2.9892,2.9792,2.9792,2.9792,2.9792,2.9754,2.9603,2.9578,2.9528,2.939,2.8994,2.8568,2.8185,2.8171,2.8273,2.8505,2.9134,2.977,3.0235,3.032,3.0352,3.0352,3.0761,3.1031,3.1031,3.1031,3.1091,3.1241,3.1241,3.0764,2.969,3.0269,2.9613,2.7517,2.7851,2.762,2.6816,2.704,2.7348,2.7743,2.8354,2.9061,1.9569,2.0166,2.0635,2.1327,2.1191,2.0869,2.0928,2.0596,2.0353,2.0553,2.1354,0.0,0.0,0.0,0.0,0.0,0.0,0.0,2.9603,2.9792,2.9767,0.0,3.0211,0.0,3.0514,3.1055,3.1173,0.0,3.0331,3.0043,2.9804,2.9792,2.9792,2.9792,2.9792,2.9792,2.9792,2.9792,2.9792,2.9792,2.9792,2.9792,2.9792,2.9792,2.9792,2.9804,0.0,3.0156,3.0168,3.0414,3.0683,3.0947,3.0947,3.1135,3.1424,3.1662,3.175,3.1788,3.2039,3.2148,3.2072,3.157,3.1406,3.1406,3.1406,3.1406,3.1336,3.1035,3.0947,3.0834,3.0294,3.0156,3.0093,2.9854,2.9792,2.9792,2.9792,2.9792,2.9792,2.9792,2.9528,2.9195,2.89,2.8637,2.859,2.8968,2.9043,2.9423,3.0379,3.0706,3.0837,3.0837,3.1234,3.1365,3.0999,3.1292,3.1351,3.0999,3.1292,3.1073,3.0133,3.0569,2.9996,2.8198,2.8472,2.8438,2.8052,2.8268,2.8749,2.946,3.0143,3.0884,2.0459,2.0977,2.1396,2.1787,2.1542,2.1113,2.0839,2.0281,1.9857,2.0017,0.0,0.0,2.0986,0.0,2.4255,2.541,0.0,2.7889,2.9553,2.9854,3.0055,3.0437,3.0613,3.0871,3.1248,3.1369,3.1173,3.0638,3.06,3.0382,2.9829,2.9792,2.9792,2.9792,2.9792,2.9792,2.9792,2.9792,2.9792,2.9792,2.9792,2.9792,2.9792,2.9867,2.9905,2.993,0.0,0.0,3.0738,3.1198,3.1436,3.152,3.152,3.157,3.1675,3.2152,3.2328,3.2403,3.2927,3.3102,3.2939,3.1947,3.1633,3.1633,3.1633,3.1633,3.162,3.1524,3.152,3.1373,3.0859,3.0701,3.0595,3.0118,3.0005,3.0005,3.0005,2.9955,2.988,2.9804,2.9792,2.9792,2.9792,2.9377,2.927,3.0035,2.9144,2.8939,3.0515,3.1124,3.1456,3.1574,3.1706,3.1486,3.0786,3.1249,3.1279,3.0574,3.1071,3.1338,3.1235,3.1324,3.1011,3.0208,3.0023,3.0008,3.0139,3.0599,3.1273,3.2173,3.351,3.4169,2.0957,2.1435,2.1787,2.1886,2.1542,2.1283,2.1591,2.0504,0.0,0.0,0.0,2.0316,2.1233,2.2418,0.0,2.5335,0.0,0.0,0.0,0.0,3.0331,0.0,0.0,0.0,0.0,0.0,0.0,0.0,0.0,3.0382,2.9829,2.9792,2.9792,2.9792,2.9792,2.9792,2.9792,2.9792,2.9792,2.9792,2.9792,2.9792,2.9817,3.0269,3.045,3.0487,3.1035,0.0,3.126,3.1348,3.1662,3.2056,3.2056,3.2365,3.2826,3.2914,3.2952,3.2964,3.3065,3.3102,3.3065,3.2876,3.2801,3.2801,3.2801,3.2801,3.27,3.2202,3.2056,3.1938,3.1399,3.1248,3.1235,3.1135,3.111,3.111,3.111,3.0771,3.0331,2.988,2.9792,2.9792,2.9792,2.9704,2.9699,2.9859,2.9851,2.9943,3.0272,3.0682,3.1217,3.1998,3.2713,3.311,3.2958,3.2373,3.1935,3.1808,3.1136,3.0461,2.9787,3.0397,3.0397,2.9651,3.0289,3.0696,3.0829,3.0924,3.128,3.1883,3.2134,3.2508,2.1455,2.1885,2.2207,2.2207,2.1698,2.1184,2.1129,0.0,0.0,0.0,0.0,1.9682,2.0468,0.0,0.0,0.0,0.0,0.0,0.0,0.0,0.0,0.0,0.0,0.0,0.0,0.0,0.0,0.0,0.0,3.0382,2.9829,2.9792,2.9792,2.9792,2.9792,2.993,3.0218,2.993,3.0068,3.064,3.0344,3.0357,3.0633,3.0896,3.1022,3.1047,3.1587,0.0,3.1838,3.2173,3.2449,3.2667,3.2667,3.2851,3.3102,3.3102,3.3102,3.3102,3.3102,3.3102,3.3102,3.3102,3.3102,3.3102,3.3102,3.3102,3.304,3.2742,3.2667,3.2541,3.1964,3.1813,3.175,3.1482,3.1406,3.1406,3.1406,3.1198,3.0859,3.0319,3.0218,3.0131,2.9842,2.9792,2.9792,2.9792,2.991,3.0163,3.0661,3.0886,3.1104,3.1335,3.2205,3.2584,3.2125,3.2553,3.2632,3.2173,3.2125,3.1947,3.1558,3.1899,3.1706,3.0865,3.1618,3.1769,3.1301,3.1671,3.2218,3.2942,3.2942,3.3351,2.1787,2.2256,2.2586,2.2401,2.1776,2.1036,2.0432,1.9029,0.0,0.0,0.0,1.9031,1.9836,0.0,0.0,0.0,0.0,0.0,0.0,0.0,0.0,0.0,0.0,0.0,0.0,0.0,0.0,0.0,0.0,0.0,2.9817,2.9792,2.9792,2.9792,2.9792,3.0055,3.0588,3.0181,3.0444,3.1386,3.0972,3.0997,3.1406,3.1512,3.1562,3.1599,3.2152,0.0,0.0,3.2901,3.3102,3.3102,3.3102,3.3102,3.3102,3.3102,3.3102,3.3102,3.3102,3.3102,3.3102,3.3102,3.3102,3.3102,3.3102,3.3102,3.3102,3.3102,3.3102,3.2989,3.2516,3.239,3.229,3.1851,3.175,3.1733,3.1599,3.1562,3.1411,3.0884,3.0676,3.0487,3.0193,2.9942,2.9829,2.9942,2.9867,3.0075,3.0814,3.0895,3.0777,3.0461,3.1503,3.1938,3.1235,3.2315,3.272,3.2037,3.2625,3.3009,3.3009,3.3199,3.3057,3.2511,3.3029,3.3006,3.2437,3.2964,3.3602,3.4312,3.4312,3.4815,2.1896,2.2449,2.2879,2.2139,2.1571,2.0977,2.0147,0.0,0.0,0.0,1.8603,1.8336,2.0248,0.0,0.0,0.0,0.0,0.0,0.0,0.0,0.0,0.0,0.0,0.0,0.0,0.0,0.0,0.0,0.0,0.0,2.9792,2.9792,2.9792,2.9792,2.9792,3.0055,3.0588,3.055,3.0821,3.1406,3.1356,3.1348,3.1432,3.1901,3.2139,3.2156,3.2776,0.0,0.0,3.3077,3.3102,3.3102,3.3102,3.3102,3.3102,3.3102,3.3102,3.3102,3.3102,3.3102,3.3102,3.3102,3.3102,3.3102,3.3102,3.3102,3.3102,3.3102,3.3102,3.309,3.3027,3.3027,3.3002,3.2952,3.2939,3.2801,3.2252,3.2139,3.1976,3.1424,3.0934,3.0746,3.1173,3.0444,2.9967,3.045,3.0118,2.983,2.9914,2.9934,2.9915,2.9878,3.148,3.253,3.2441,3.1816,3.1376,3.1303,3.1376,3.1412,3.1412,3.2228,3.3037,3.382,3.3895,3.4307,3.514,3.52,3.5279,3.5359,3.5359,3.5736,2.1816,2.2479,2.2918,2.21,2.1378,2.0707,2.0192,0.0,1.7904,1.8864,1.8629,1.8506,1.9348,2.016,0.0,0.0,0.0,0.0,0.0,0.0,0.0,0.0,0.0,0.0,0.0,0.0,0.0,0.0,0.0,0.0,2.9792,2.9792,2.9942,3.0281,3.0281,3.0688,3.1541,3.1248,3.1524,3.2424,3.2051,3.2064,3.2437,3.2629,3.2729,3.2776,3.3002,0.0,0.0,3.3102,3.3102,3.3102,3.3102,3.3102,3.3102,3.3102,3.3102,3.3102,3.3102,3.3102,3.3102,3.3102,3.3102,3.3102,3.3102,3.3102,3.3102,3.3102,3.3102,3.3102,3.3102,3.3102,3.3102,3.3102,3.3102,3.304,3.278,3.2729,3.2566,3.1989,3.1725,3.1537,3.1411,3.0783,3.047,3.0997,3.0344,2.9917,3.0244,2.9993,2.9792,2.9792,3.0964,3.176,3.176,3.1924,3.2051,3.2051,3.2051,3.2051,3.2051,3.2943,3.3345,3.3154,3.431,3.4509,3.3754,3.431,3.4593,3.4608,3.5005,3.5676,2.1397,2.2119,2.2576,2.1875,2.1234,2.0614,0.0,0.0,1.8226,1.8359,1.8555,1.8701,1.8701,1.9799,2.088,0.0,0.0,0.0,0.0,0.0,0.0,0.0,0.0,0.0,0.0,0.0,0.0,0.0,0.0,0.0,0.0,3.0043,3.0218,3.0588,3.0738,3.1286,3.2181,3.1825,3.2114,3.309,3.2667,3.2679,3.3102,3.3102,3.3102,3.3102,0.0,0.0,0.0,3.3102,3.3102,3.3102,3.3102,3.3102,3.3102,3.3102,3.3102,3.3102,3.3102,3.3102,3.3102,3.3102,3.3102,3.3102,3.3102,3.3102,3.3102,3.3102,3.3102,3.3102,3.3102,3.3102,3.3102,3.3102,3.3102,3.3102,3.3102,3.3102,3.2977,3.2554,3.2307,3.2139,3.1947,3.1311,3.1022,3.1549,3.0846,3.0407,3.0796,3.0507,3.0269,3.0269,3.1144,3.1469,3.084,3.1384,3.1774,3.1774,3.2033,3.2195,3.2195,3.3101,3.3276,3.2611,3.3939,3.3973,3.2593,3.3752,3.4301,3.4315,3.5276,3.6212,2.0498,2.125,2.1787,2.1337,2.1203,2.0826,0.0,1.9101,1.8817,1.7821,1.818,1.8701,1.8701,1.9799,2.088,2.1407,0.0,0.0,0.0,0.0,0.0,0.0,0.0,0.0,0.0,0.0,0.0,0.0,0.0,0.0,0.0,3.0588,3.0588,3.06,3.111,3.165,3.2181,3.2181,3.2503,3.3102,3.309,3.309,3.3102,3.3102,3.3102,0.0,0.0,0.0,0.0,3.3102,3.3102,3.3102,3.3102,3.3102,3.3102,3.3102,3.3102,3.3102,3.3102,3.3102,3.3102,3.3102,3.3102,3.3102,3.3102,3.3102,3.3102,3.3102,3.3102,3.3102,3.3102,3.3102,3.3102,3.3102,3.3102,3.3102,3.3102,3.3102,3.3102,3.309,3.2604,3.239,3.2989,3.2148,3.1574,3.2106,3.1725,3.1394,3.1386,3.1394,3.1373,3.1373,3.2342,3.2124,2.9996,2.9811,2.983,2.983,3.0696,3.1217,3.1217,3.2123,3.2611,3.2593,3.2611,3.2611,3.2593,3.4213,3.4984,3.503,3.6633,3.7731,1.957,2.0341,2.083,2.0088,2.0351,2.0421,1.901,1.928,1.9272,1.7257,1.8246,1.9136,1.8126,1.9111,2.0639,2.232,2.2882,0.0,0.0,0.0,0.0,0.0,0.0,0.0,0.0,0.0,0.0,0.0,0.0,0.0,0.0,3.129,3.1692,3.1692,3.1863,3.2227,3.2805,3.2826,3.2914,3.3102,3.3102,3.3102,3.3102,3.3102,0.0,0.0,0.0,0.0,0.0,3.3102,3.3102,3.3102,3.3102,3.3102,3.3102,3.3102,3.3102,3.3102,3.3102,3.3102,3.3102,3.3102,3.3102,3.3102,3.3102,3.3102,3.3102,3.3102,3.3102,3.3102,3.3102,3.3102,3.3102,3.3102,3.3102,3.3102,3.3102,3.3102,3.3102,3.3102,3.2952,3.2889,3.3065,3.2453,3.2139,3.2738,3.2022,3.1524,3.1901,3.1625,3.1406,3.1406,3.1699,3.164,3.0949,3.182,3.2094,3.1343,3.2273,3.2514,3.1779,3.3098,3.3484,3.2743,3.4126,3.486,3.486,3.6064,3.6887,3.7333,3.7851,3.8437,0.0,1.9325,1.9765,1.9393,1.9912,2.0181,1.8809,1.949,1.9733,1.7397,1.8461,1.9436,1.8246,1.9187,2.0652,2.2232,0.0,0.0,0.0,0.0,0.0,0.0,0.0,0.0,0.0,0.0,0.0,0.0,0.0,0.0,0.0,3.183,3.2294,3.2528,3.2541,3.2717,3.3102,3.3102,3.3102,3.3102,3.3102,3.3102,3.3102,3.3102,0.0,0.0,0.0,0.0,0.0,3.3102,3.3102,3.3102,3.3102,3.3102,3.3102,3.3102,3.3102,3.3102,3.3102,3.3102,3.3102,3.3102,3.3102,3.3102,3.3102,3.3102,3.3102,3.3102,3.3102,3.3102,3.3102,3.3102,3.3102,3.3102,3.3102,3.3102,3.3102,3.3102,3.3102,3.3102,3.3102,3.3102,3.3102,3.2801,3.2667,3.304,3.2499,3.2152,3.2491,3.2261,3.2047,3.2047,3.2395,3.2485,3.2089,3.2489,3.2661,3.24,3.3004,3.3268,3.2998,3.3942,3.4152,3.3478,3.4762,3.5403,3.5403,3.665,3.7774,3.8781,3.8781,3.9005,0.0,1.8166,1.8559,1.8965,1.966,1.9898,1.8617,1.9475,0.0,1.794,1.8701,1.9539,1.893,1.9848,2.093,2.162,0.0,0.0,0.0,0.0,0.0,0.0,0.0,0.0,0.0,0.0,0.0,0.0,0.0,0.0,0.0,3.2231,3.2516,3.3077,3.3102,3.3102,3.3102,3.3102,3.3102,3.3102,3.3102,3.3102,3.3102,3.3102,0.0,0.0,0.0,0.0,0.0,3.3102,3.3102,3.3102,3.3102,3.3102,3.3102,3.3102,3.3102,3.3102,3.3102,3.3102,3.3102,3.3102,3.3102,3.3102,3.3102,3.3102,3.3102,3.3102,3.3102,3.3102,3.3102,3.3102,3.3102,3.3102,3.3102,3.3102,3.3102,3.3102,3.3102,3.3102,3.3102,3.3102,3.3102,3.3102,3.3102,3.3102,3.3102,3.3102,3.3102,3.3102,3.3102,3.3102,3.3995,3.417,3.3176,3.223,3.2072,3.2981,3.3197,3.3688,3.4607,3.4761,3.4789,3.4732,3.4789,3.4864,3.4938,3.6442,3.7941,3.9406,3.9406,3.9406,1.6378,0.0,1.7103,1.6901,1.7718,1.8232,0.0,1.787,1.8589,1.7061,0.0,1.9166,1.9869,2.0378,0.0,0.0,0.0,0.0,0.0,0.0,0.0,0.0,0.0,0.0,0.0,0.0,0.0,0.0,0.0,0.0,0.0,3.2641,3.2952,3.3102,3.3102,3.3102,3.3102,3.3102,3.3102,3.3102,3.3102,3.3102,3.3102,3.3102,0.0,0.0,0.0,0.0,3.3102,3.3102,3.3102,3.3102,3.3102,3.3102,3.3102,3.3102,3.3102,3.3102,3.3102,3.3102,3.3102,3.3102,3.3102,3.3102,3.3102,3.3102,3.3102,3.3102,3.3102,3.3102,3.3102,3.3102,3.3102,3.3102,3.3102,3.3102,3.3102,3.3102,3.3102,3.3102,3.3102,3.3102,3.3102,3.3102,3.3102,3.3102,3.3102,3.3102,3.3102,3.3102,3.3102,3.3102,3.3334,3.3377,3.3124,3.3895,3.4137,3.3568,3.5044,3.5672,3.5153,3.6358,3.6655,3.5842,3.6636,3.7453,3.827,3.8648,3.9028,3.9406,3.9406,3.9406,1.5659,1.6225,1.6697,1.6695,1.7311,1.7723,1.7043,1.7504,0.0,0.0,0.0,0.0,0.0,0.0,0.0,0.0,0.0,0.0,0.0,0.0,0.0,0.0,0.0,0.0,0.0,0.0,0.0,0.0,0.0,0.0,0.0,3.2927,3.3102,3.3102,3.3102,3.3102,3.3102,3.3102,3.3102,3.3102,3.3102,3.3102,3.3102,3.3102,3.3102,0.0,0.0,0.0,3.3102,3.3102,3.3102,3.3102,3.3102,3.3102,3.3102,3.3102,3.3102,3.3102,3.3102,3.3102,3.3102,3.3102,3.3102,3.3102,3.3102,3.3102,3.3102,3.3102,3.3102,3.3102,3.3102,3.3102,3.3102,3.3102,3.3102,3.3102,3.3102,3.3102,3.3102,3.3102,3.3102,3.3102,3.3102,3.3102,3.3102,3.3102,3.3102,3.3102,3.3102,3.3102,3.3102,3.3102,3.3102,3.3102,3.3102,3.3835,3.4263,3.4161,3.5225,3.5787,3.5722,3.6587,3.7021,3.693,3.7979,3.8819,3.9406,3.9406,3.9406,3.9406,3.9406,3.9406,1.5381,1.6137,1.6849,1.7057,1.7316,1.7523,1.7451,0.0,0.0,0.0,0.0,0.0,0.0,0.0,0.0,0.0,0.0,0.0,0.0,0.0,0.0,0.0,0.0,0.0,0.0,0.0,0.0,0.0,0.0,0.0,0.0,3.3102,3.3102,3.3102,3.3102,3.3102,3.3102,3.3102,3.3102,3.3102,3.3102,3.3102,3.3102,3.3102,3.3102,0.0,0.0,0.0,3.3102,3.3102,3.3102,3.3102,3.3102,3.3102,3.3102,3.3102,3.3102,3.3102,3.3102,3.3102,3.3102,3.3102,3.3102,3.3102,3.3102,3.3102,3.3102,3.3102,3.3102,3.3102,3.3102,3.3102,3.3102,3.3102,3.3102,3.3102,3.3102,3.3102,3.3102,3.3102,3.3102,3.3102,3.3102,3.3102,3.3102,3.3102,3.3102,3.3102,3.3102,3.3102,3.3102,3.3102,3.3102,3.3102,3.3102,3.3102,3.3492,3.4408,3.4602,3.5149,3.6158,3.6198,3.6702,3.7772,3.869,3.9247,3.9406,3.9406,3.9406,3.9406,3.9406,3.9406,1.5782,1.6627,1.7031,1.5961,1.6043,1.6261,1.5861,0.0,0.0,0.0,0.0,0.0,0.0,0.0,0.0,0.0,0.0,0.0,0.0,0.0,0.0,0.0,0.0,0.0,0.0,0.0,0.0,0.0,0.0,0.0,0.0,3.3102,3.3102,3.3102,3.3102,3.3102,3.3102,3.3102,3.3102,3.3102,3.3102,3.3102,3.3102,3.3102,3.3102,0.0,0.0,3.3102,3.3102,3.3102,3.3102,3.3102,3.3102,3.3102,3.3102,3.3102,3.3102,3.3102,3.3102,3.3102,3.3102,3.3102,3.3102,3.3102,3.3102,3.3102,3.3102,3.3102,3.3102,3.3102,3.3102,3.3102,3.3102,3.3102,3.3102,3.3102,3.3102,3.3102,3.3102,3.3102,3.3102,3.3102,3.3102,3.3102,3.3102,3.3102,3.3102,3.3102,3.3102,3.3102,3.3102,3.3102,3.3102,3.3102,3.3102,3.3102,3.3176,3.3334,3.4191,3.5149,3.6158,3.6198,3.6702,3.7772,3.7956,3.849,3.9406,3.9406,3.9406,3.9406,3.9406,3.9406,1.5151,1.5855,1.6289,1.6147,1.6621,1.7222,1.7624,1.7132,0.0,0.0,0.0,0.0,0.0,0.0,0.0,0.0,0.0,0.0,0.0,0.0,0.0,0.0,0.0,0.0,0.0,0.0,0.0,0.0,0.0,0.0,0.0,0.0,3.3102,3.3102,3.3102,3.3102,3.3102,3.3102,3.3102,3.3102,3.3102,3.3102,3.3102,3.3102,3.3102,3.3102,0.0,3.3102,3.3102,3.3102,3.3102,3.3102,3.3102,3.3102,3.3102,3.3102,3.3102,3.3102,3.3102,3.3102,3.3102,3.3102,3.3102,3.3102,3.3102,3.3102,3.3102,3.3102,3.3102,3.3102,3.3102,3.3102,3.3102,3.3102,3.3102,3.3102,3.3102,3.3102,3.3102,3.3102,3.3102,3.3102,3.3102,3.3102,3.3102,3.3102,3.3102,3.3102,3.3102,3.3102,3.3102,3.3102,3.3102,3.3102,3.3102,3.3102,3.3102,3.3102,3.3556,3.4045,3.4506,3.5075,3.5621,3.6114,3.7242,3.8032,3.8546,3.9123,3.9406,3.9406,3.9406,3.9406,1.4838,1.5337,1.5781,1.6644,0.0,1.7859,1.9025,1.818,0.0,0.0,0.0,0.0,0.0,0.0,0.0,0.0,0.0,0.0,0.0,0.0,0.0,0.0,0.0,0.0,0.0,0.0,0.0,0.0,0.0,0.0,0.0,0.0,3.3102,3.3102,3.3102,3.3102,3.3102,3.3102,3.3102,3.3102,3.3102,3.3102,3.3102,3.3102,3.3102,3.3102,3.3102,3.3102,3.3102,3.3102,3.3102,3.3102,3.3102,3.3102,3.3102,3.3102,3.3102,3.3102,3.3102,3.3102,3.3102,3.3102,3.3102,3.3102,3.3102,3.3102,3.3128,3.3253,3.3291,3.3291,3.3291,3.3291,3.3291,3.3291,3.319,3.3102,3.3102,3.3102,3.3102,3.3102,3.3203,3.3291,3.3291,3.3391,3.3458,3.3458,3.3458,3.3458,3.3458,3.3458,3.3458,3.3458,3.3458,3.3458,3.3458,3.3458,3.3525,3.3666,3.3316,3.3102,3.3102,3.389,3.4449,3.4705,3.6273,3.7319,3.7791,3.862,3.9141,3.9406,3.9556,3.9631,1.564,1.6026,1.6261,1.7135,1.6799,0.0,1.7836,1.8252,0.0,2.1044,0.0,0.0,0.0,0.0,0.0,0.0,0.0,0.0,0.0,0.0,0.0,0.0,0.0,0.0,0.0,0.0,0.0,0.0,0.0,0.0,0.0,0.0,0.0,3.3102,3.3102,3.3102,3.3102,3.3102,3.3102,3.3102,3.3102,3.3102,3.3102,3.3102,3.3102,3.3102,3.3102,3.3102,3.3102,3.3102,3.3102,3.3102,3.3102,3.3102,3.3102,3.3102,3.3102,3.3102,3.3102,3.3102,3.3102,3.3102,3.3102,3.3102,3.3102,3.3102,3.3203,3.3696,3.3847,3.3847,3.3847,3.3847,3.3847,3.3847,3.3467,3.3102,3.3102,3.3102,3.3102,3.3102,3.3504,3.3847,3.3847,3.4261,3.4577,3.4577,3.4577,3.4577,3.4577,3.4577,3.4577,3.4577,3.4577,3.4577,3.4577,3.4577,3.4806,3.5296,3.3922,3.3102,3.3102,3.3176,3.367,3.4684,3.4849,3.5875,3.7791,3.7866,3.8435,3.9406,4.0053,4.0337,1.4644,1.5254,1.5869,1.6758,1.7592,0.0,0.0,1.9592,2.0146,2.4234,0.0,0.0,0.0,0.0,0.0,0.0,0.0,0.0,0.0,0.0,0.0,0.0,0.0,0.0,0.0,0.0,0.0,0.0,0.0,0.0,0.0,0.0,0.0,3.3102,3.3102,3.3102,3.3102,3.3102,3.3102,3.3102,3.3102,3.3102,3.3102,3.3102,3.3102,3.3102,3.3102,3.3102,3.3102,3.3102,3.3102,3.3102,3.3102,3.3102,3.3102,3.3102,3.3102,3.3102,3.3102,3.3102,3.3102,3.3102,3.3102,3.3165,3.3504,3.3605,3.3709,3.4261,3.464,3.4828,3.4477,3.4389,3.4389,3.4389,3.4226,3.401,3.3658,3.3605,3.3605,3.3605,3.3759,3.401,3.4327,3.4565,3.4703,3.4703,3.4703,3.4703,3.4703,3.4703,3.4703,3.4703,3.4703,3.4703,3.4703,3.4703,3.4782,3.4986,3.4113,3.3745,3.4092,3.3462,3.3304,3.3691,3.4345,3.5081,3.5875,3.7586,3.8644,3.9053,4.04,4.1029,1.4244,1.4766,1.5444,1.6443,0.0,0.0,2.1863,2.1201,2.146,2.6127,0.0,0.0,0.0,0.0,0.0,0.0,0.0,0.0,0.0,0.0,0.0,0.0,0.0,0.0,0.0,0.0,0.0,0.0,0.0,0.0,0.0,0.0,0.0,0.0,3.2562,3.265,3.2805,3.2826,3.2914,3.3102,3.3102,3.3102,3.3102,3.3102,3.3102,3.3102,3.3102,3.3102,3.3102,3.3102,3.3102,3.3102,3.3102,3.3102,3.3102,3.3102,3.3102,3.3102,3.3102,3.3102,3.3102,3.3102,3.3102,3.3203,3.3734,3.3897,3.4048,3.4753,3.5207,3.5458,3.5268,3.5092,3.4966,3.4966,3.4828,3.459,3.4236,3.4161,3.4161,3.4161,3.4276,3.4515,3.4891,3.5104,3.524,3.524,3.524,3.524,3.524,3.524,3.524,3.524,3.524,3.524,3.524,3.524,3.5289,3.5449,3.4792,3.4426,3.4448,3.3594,3.3102,3.3102,3.3818,3.4437,3.4961,3.6843,3.8204,3.9081,4.0485,4.1347,1.4789,1.4799,1.5122,0.0,0.0,0.0,2.3133,2.2925,2.2909,2.5987,0.0,0.0,0.0,0.0,0.0,0.0,0.0,0.0,0.0,0.0,0.0,0.0,0.0,0.0,0.0,0.0,0.0,0.0,0.0,0.0,0.0,0.0,0.0,0.0,3.1406,3.165,3.2202,3.2194,3.2503,3.309,3.3102,3.3102,3.3102,3.3102,3.3102,3.3102,3.3102,3.3102,3.3102,3.3102,3.3102,3.3102,3.3102,3.3102,3.3102,3.3102,3.3102,3.3102,3.3102,3.3102,3.3102,3.3102,3.3102,3.3203,3.3734,3.3909,3.4135,3.5217,3.5508,3.5656,3.6243,3.5968,3.5508,3.5508,3.5117,3.4715,3.4703,3.4703,3.4703,3.4703,3.5132,3.5495,3.5508,3.5994,3.6405,3.6405,3.6405,3.6405,3.6405,3.6405,3.6405,3.6405,3.6405,3.6405,3.6405,3.6405,3.6607,3.7058,3.6078,3.5029,3.3969,3.3404,3.3115,3.3115,3.3115,3.3913,3.5513,3.5526,3.6947,3.963,4.0302,4.1279,1.4313,1.5004,0.0,0.0,0.0,0.0,0.0,2.4215,0.0,0.0,0.0,0.0,0.0,0.0,0.0,0.0,0.0,0.0,0.0,0.0,0.0,0.0,0.0,0.0,0.0,0.0,0.0,0.0,0.0,0.0,0.0,0.0,0.0,0.0,3.1406,3.1474,3.1637,3.2014,3.2303,3.2466,3.2901,3.3102,3.3102,3.3102,3.3102,3.3102,3.3102,3.3102,3.3102,3.3102,3.3102,3.3102,3.3102,3.3102,3.3102,3.3102,3.3102,3.3102,3.3102,3.3102,3.3102,3.3102,3.3102,3.3278,3.4198,3.4452,3.4713,3.5805,3.6143,3.618,3.6344,3.6268,3.6143,3.6143,3.6017,3.5768,3.5345,3.5257,3.5257,3.5257,3.5382,3.5644,3.6056,3.6281,3.6405,3.6405,3.6405,3.6405,3.6405,3.6405,3.6405,3.6405,3.6405,3.6405,3.6405,3.6405,3.6471,3.6607,3.5905,3.5522,3.5587,3.4708,3.4236,3.4236,3.4236,3.4871,3.6214,3.7393,3.8832,4.0472,4.186,4.2698,1.4562,0.0,0.0,0.0,0.0,0.0,0.0,0.0,0.0,0.0,0.0,0.0,0.0,0.0,0.0,0.0,0.0,0.0,0.0,0.0,0.0,0.0,0.0,0.0,0.0,0.0,0.0,0.0,0.0,0.0,0.0,0.0,0.0,0.0,3.0758,3.0859,3.1085,3.1411,3.1667,3.1888,3.2261,3.2537,3.2742,3.2989,3.3102,3.3102,3.3102,3.3102,3.3102,3.3102,3.3102,3.3102,3.3102,3.3102,3.3102,3.3102,3.3102,3.3102,3.3102,3.3102,3.3102,3.3102,3.3102,3.3266,3.4123,3.4377,3.4575,3.5454,3.5868,3.6031,3.6031,3.6218,3.6405,3.6405,3.6405,3.6293,3.5943,3.5845,3.5845,3.5845,3.5845,3.5968,3.6331,3.6405,3.6405,3.6405,3.6405,3.6405,3.6405,3.6405,3.6405,3.6405,3.6405,3.6405,3.6405,3.6405,3.6405,3.6405,3.6056,3.621,3.6981,3.5523,3.4703,3.4703,3.4703,3.5395,3.6823,3.7839,3.9283,4.1142,4.2155,4.288,1.522,0.0,0.0,0.0,0.0,0.0,0.0,0.0,0.0,0.0,0.0,0.0,0.0,0.0,0.0,0.0,0.0,0.0,0.0,0.0,0.0,0.0,0.0,0.0,0.0,0.0,0.0,0.0,0.0,0.0,0.0,0.0,0.0,2.9792,2.9792,3.003,3.0512,3.0575,3.0839,0.0,3.1381,3.1675,3.2206,3.2776,3.3052,3.3102,3.3102,3.3102,3.3102,3.3102,3.3102,3.3102,3.3102,3.3102,3.3102,3.3102,3.3102,3.3102,3.3102,3.3102,3.3102,3.3102,3.3102,3.3203,3.3734,3.3897,3.401,3.454,3.5092,3.5495,3.5495,3.5956,3.6405,3.6405,3.6405,3.6405,3.6405,3.6405,3.6405,3.6405,3.6405,3.6405,3.6405,3.6405,3.6405,3.6405,3.6405,3.6405,3.6405,3.6405,3.6405,3.6405,3.6405,3.6405,3.6405,3.6405,3.6405,3.6405,3.6405,3.6873,3.7893,3.596,3.4909,3.5022,3.4909,3.5734,3.7551,3.7551,3.8996,4.1747,4.1747,4.231,0.0,1.5732,0.0,0.0,0.0,0.0,0.0,0.0,0.0,0.0,0.0,0.0,0.0,0.0,0.0,0.0,0.0,0.0,0.0,0.0,0.0,0.0,0.0,0.0,0.0,0.0,0.0,0.0,0.0,0.0,0.0,0.0,0.0,2.9792,2.9792,2.9854,2.9967,3.0387,3.0651,0.0,3.1198,3.1675,3.2194,3.234,3.2641,3.3102,3.3102,3.3102,3.3102,3.3102,3.3102,3.3102,3.3102,3.3102,3.3102,3.3102,3.3102,3.3102,3.3102,3.3102,3.3102,3.3102,3.3102,3.3203,3.3734,3.3897,3.401,3.454,3.5092,3.5495,3.5495,3.5956,3.6405,3.6405,3.6405,3.6405,3.6405,3.6405,3.6405,3.6405,3.6405,3.6405,3.6405,3.6405,3.6405,3.6405,3.6405,3.6405,3.6405,3.6405,3.6405,3.6405,3.6405,3.6405,3.6405,3.6405,3.6405,3.6405,3.6405,3.6523,3.6756,3.6283,3.647,3.7345,3.6493,3.7117,3.9344,3.9344,4.0576,4.2921,4.2921,4.3076,0.0,0.0,0.0,0.0,0.0,0.0,0.0,0.0,0.0,0.0,0.0,0.0,0.0,0.0,0.0,0.0,0.0,0.0,0.0,0.0,0.0,0.0,0.0,0.0,0.0,0.0,0.0,0.0,0.0,0.0,0.0,2.9792,2.9792,2.9792,2.9792,2.9792,2.9792,3.008,3.0218,3.0231,3.0495,3.1047,3.1838,3.2378,3.2792,3.3102,3.3102,3.3102,3.3102,3.3102,3.3102,3.3102,3.3102,3.3102,3.3102,3.3102,3.3102,3.3102,3.3102,3.3102,3.3102,3.3102,3.3102,3.3153,3.342,3.353,3.3621,3.4173,3.4703,3.5169,3.5433,3.5956,3.6405,3.6405,3.6405,3.6405,3.6405,3.6405,3.6405,3.6405,3.6405,3.6405,3.6405,3.6405,3.6405,3.6405,3.6405,3.6405,3.6405,3.6405,3.6405,3.6405,3.6405,3.6405,3.6405,3.6405,3.6405,3.6405,3.6405,3.6651,3.7196,3.6698,3.6675,3.7253,3.6686,3.7266,3.905,3.9615,4.0788,4.2508,4.3056,4.329,0.0,0.0,1.8907,0.0,0.0,0.0,0.0,0.0,0.0,0.0,0.0,0.0,0.0,0.0,0.0,0.0,0.0,0.0,0.0,0.0,0.0,0.0,0.0,0.0,0.0,0.0,0.0,0.0,0.0,0.0,2.9792,2.9792,2.9792,2.9792,2.9792,2.9792,2.9792,2.9792,2.9792,2.9792,2.9892,3.0444,3.1444,3.2474,3.3002,3.3102,3.3102,3.3102,3.3102,3.3102,3.3102,3.3102,3.3102,3.3102,3.3102,3.3102,3.3102,3.3102,3.3102,3.3102,3.3102,3.3102,3.3102,3.3102,3.3102,3.3165,3.3341,3.3771,3.4339,3.4941,3.5382,3.5956,3.6405,3.6405,3.6405,3.6405,3.6405,3.6405,3.6405,3.6405,3.6405,3.6405,3.6405,3.6405,3.6405,3.6405,3.6405,3.6405,3.6405,3.6405,3.6405,3.6405,3.6405,3.6405,3.6405,3.6405,3.6405,3.6405,3.6405,3.6826,3.7756,3.6907,3.6405,3.6405,3.6581,3.7266,3.8424,3.9623,4.0788,4.1912,4.286,4.329,0.0,0.0,2.1422,0.0,0.0,0.0,0.0,0.0,0.0,0.0,0.0,0.0,0.0,0.0,0.0,0.0,0.0,0.0,0.0,0.0,0.0,0.0,0.0,0.0,0.0,0.0,0.0,0.0,0.0,0.0,2.9792,2.9792,2.9792,2.9792,2.9792,2.9792,2.9792,2.9792,2.9792,2.9804,3.0281,3.0821,3.1411,3.2039,3.2604,3.3102,3.3102,3.3102,3.3102,3.3102,3.3102,3.3102,3.3102,3.3102,3.3102,3.3102,3.3102,3.3102,3.3102,3.3102,3.3102,3.3102,3.3102,3.3102,3.3102,3.3407,3.3809,3.3872,3.4615,3.5408,3.5483,3.5956,3.6405,3.6405,3.6405,3.6405,3.6405,3.6405,3.6405,3.6405,3.6405,3.6405,3.6405,3.6405,3.6405,3.6405,3.6405,3.6405,3.6405,3.6405,3.6405,3.6405,3.6405,3.6405,3.6405,3.6405,3.6405,3.6405,3.6405,3.6476,3.6628,3.6476,3.6405,3.6405,3.7368,3.8446,3.9645,4.0795,4.1968,4.3076,4.323,4.329,1.7101,2.0369,2.3687,0.0,0.0,0.0,0.0,0.0,0.0,0.0,0.0,0.0,0.0,0.0,0.0,0.0,0.0,0.0,0.0,0.0,0.0,0.0,0.0,0.0,0.0,0.0,0.0,0.0,0.0,2.9792,2.9792,2.9792,2.9792,2.9792,2.9792,2.9792,2.9792,2.9792,2.9792,2.9804,3.0337,3.0884,3.1432,3.1964,3.2528,3.3102,3.3102,3.3102,3.3102,3.3102,3.3102,3.3102,3.3102,3.3102,3.3102,3.3102,3.3102,3.3102,3.3102,3.3102,3.3102,3.3102,3.3102,3.3102,3.3102,3.3458,3.396,3.4274,3.4916,3.5571,3.5931,3.6205,3.6405,3.6405,3.6405,3.6405,3.6405,3.6405,3.6405,3.6405,3.6405,3.6405,3.6405,3.6405,3.6405,3.6405,3.6405,3.6405,3.6405,3.6405,3.6405,3.6405,3.6405,3.6405,3.6405,3.6405,3.6405,3.6405,3.6405,3.6405,3.6405,3.6405,3.6686,3.7345,3.7219,3.7723,3.8894,4.0067,4.1232,4.2351,4.3001,4.329,0.0,0.0,2.4169,0.0,0.0,0.0,0.0,0.0,0.0,0.0,0.0,0.0,0.0,0.0,0.0,0.0,0.0,0.0,0.0,0.0,0.0,0.0,0.0,0.0,0.0,0.0,0.0,0.0,0.0,2.9792,2.9792,2.9792,2.9792,2.9792,2.9792,2.9792,2.9792,2.9792,2.9792,2.9792,3.0218,3.0746,3.1399,3.1813,3.239,3.3102,3.3102,3.3102,3.3102,3.3102,3.3102,3.3102,3.3102,3.3102,3.3102,3.3102,3.3102,3.3102,3.3102,3.3102,3.3102,3.3102,3.3102,3.3128,3.3266,3.3671,3.4223,3.4753,3.5305,3.582,3.6281,3.6405,3.6405,3.6405,3.6405,3.6405,3.6405,3.6405,3.6405,3.6405,3.6405,3.6405,3.6405,3.6405,3.6405,3.6405,3.6405,3.6405,3.6405,3.6405,3.6405,3.6405,3.6405,3.6405,3.6405,3.6405,3.6405,3.6405,3.6405,3.6405,3.6405,3.6405,3.6803,3.7655,3.6826,3.7266,3.8979,3.9893,4.0916,4.205,4.29,4.329,0.0,2.0245,0.0,2.4859,0.0,0.0,0.0,0.0,0.0,0.0,0.0,0.0,0.0,0.0,0.0,0.0,0.0,0.0,0.0,0.0,0.0,0.0,0.0,0.0,0.0,0.0,0.0,0.0,0.0,2.9792,2.9792,2.9792,2.9792,2.9792,2.9792,2.9792,2.9792,2.9792,2.9792,2.9792,2.9829,3.0382,3.1406,3.1424,3.2047,3.3102,3.3102,3.3102,3.3102,3.3102,3.3102,3.3102,3.3102,3.3102,3.3102,3.3102,3.3102,3.3102,3.3102,3.3102,3.3102,3.3102,3.3102,3.319,3.3696,3.4226,3.4778,3.5307,3.5893,3.6367,3.6405,3.6405,3.6405,3.6405,3.6405,3.6405,3.6405,3.6405,3.6405,3.6405,3.6405,3.6405,3.6405,3.6405,3.6405,3.6405,3.6405,3.6405,3.6405,3.6405,3.6405,3.6405,3.6405,3.6405,3.6405,3.6405,3.6405,3.6405,3.6405,3.6405,3.6405,3.6405,3.6428,3.6499,3.6428,3.8062,4.142,4.1483,4.2091,4.321,4.327,4.329,0.0,0.0,0.0,2.4004,0.0,0.0,0.0,0.0,0.0,0.0,0.0,0.0,0.0,0.0,0.0,0.0,0.0,0.0,0.0,0.0,0.0,0.0,0.0,0.0,0.0,0.0,0.0,0.0,0.0,0.0,2.9792,2.9792,2.9792,2.9792,2.9792,2.9792,2.9792,2.9792,2.9792,2.9792,2.9792,3.0181,3.0909,3.1235,3.18,3.2541,3.2939,3.3102,3.3102,3.3102,3.3102,3.3102,3.3102,3.3102,3.3102,3.3102,3.3102,3.3102,3.3102,3.3102,3.3102,3.3102,3.3102,3.3203,3.3734,3.4264,3.4816,3.5345,3.5931,3.6405,3.6405,3.6405,3.6405,3.6405,3.6405,3.6405,3.6405,3.6405,3.6405,3.6405,3.6405,3.6405,3.6405,3.6405,3.6405,3.6405,3.6405,3.6405,3.6405,3.6405,3.6405,3.6405,3.6405,3.6405,3.6405,3.6405,3.6405,3.6405,3.6405,3.6405,3.6405,3.6405,3.7116,3.8617,3.7883,3.8491,4.0511,4.0511,4.1476,4.329,4.329,4.329,1.8199,0.0,0.0,0.0,0.0,0.0,0.0,0.0,0.0,0.0,0.0,0.0,0.0,0.0,0.0,0.0,0.0,0.0,0.0,0.0,0.0,0.0,0.0,0.0,0.0,0.0,0.0,0.0,0.0,0.0,2.9792,2.9792,2.9792,2.9792,2.9792,2.9792,2.9792,2.9792,2.9792,2.9792,2.9792,3.008,3.06,3.0972,3.1524,3.2206,3.2616,3.2914,3.3102,3.3102,3.3102,3.3102,3.3102,3.3102,3.3102,3.3102,3.3102,3.3102,3.3102,3.3102,3.3102,3.3102,3.3228,3.3479,3.401,3.454,3.5092,3.5644,3.6081,3.6405,3.6405,3.6405,3.6405,3.6405,3.6405,3.6405,3.6405,3.6405,3.6405,3.6405,3.6405,3.6405,3.6405,3.6405,3.6405,3.6405,3.6405,3.6405,3.6405,3.6405,3.6405,3.6405,3.6405,3.6405,3.6405,3.6405,3.6405,3.6405,3.6405,3.6405,3.6405,3.6405,3.7312,3.9249,3.8514,3.8881,4.0468,4.0468,4.1449,4.329,4.329,4.329,0.0,0.0,0.0,0.0,0.0,0.0,0.0,0.0,0.0,0.0,0.0,0.0,0.0,0.0,0.0,0.0,0.0,0.0,0.0,0.0,0.0,0.0,0.0,0.0,0.0,0.0,0.0,0.0,0.0,2.9792,2.9792,2.9792,2.9792,2.9792,2.9792,2.9792,2.9792,2.9792,2.9792,2.9792,2.9792,3.0068,3.0575,3.0588,3.1165,3.2144,3.2202,3.2528,3.3077,3.309,3.3102,3.3102,3.3102,3.3102,3.3102,3.3102,3.3102,3.3102,3.3102,3.3102,3.3102,3.3102,3.3467,3.401,3.454,3.5056,3.5644,3.623,3.6405,3.6405,3.6405,3.6405,3.6405,3.6405,3.6405,3.6405,3.6405,3.6405,3.6405,3.6405,3.6405,3.6405,3.6405,3.6405,3.6405,3.6405,3.6405,3.6405,3.6405,3.6405,3.6405,3.6405,3.6405,3.6405,3.6405,3.6405,3.6405,3.6405,3.6405,3.6405,3.6405,3.6405,3.6953,3.813,3.8153,3.931,4.1649,4.1608,4.2193,4.329,4.329,4.329,1.7353,0.0,0.0,0.0,0.0,0.0,0.0,0.0,0.0,0.0,0.0,0.0,0.0,0.0,0.0,0.0,0.0,0.0,0.0,0.0,0.0,0.0,0.0,0.0,0.0,0.0,0.0,0.0,2.9792,2.9792,2.9792,2.9792,2.9792,2.9792,2.9792,2.9792,2.9792,2.9792,2.9792,2.9792,2.9792,2.988,3.003,3.0412,3.0751,3.109,3.1855,3.2282,3.2478,3.2927,3.3102,3.3102,3.3102,3.3102,3.3102,3.3102,3.3102,3.3102,3.3102,3.3102,3.3102,3.3102,3.3467,3.401,3.454,3.5056,3.5644,3.623,3.6405,3.6405,3.6405,3.6405,3.6405,3.6405,3.6405,3.6405,3.6405,3.6405,3.6405,3.6405,3.6405,3.6405,3.6405,3.6405,3.6405,3.6405,3.6405,3.6405,3.6405,3.6405,3.6405,3.6405,3.6405,3.6405,3.6405,3.6405,3.6405,3.6405,3.6405,3.6405,3.6405,3.6405,3.7335,3.936,3.9404,4.0532,4.284,4.2009,4.2193,4.329,4.329,4.329,1.7512,0.0,0.0,0.0,0.0,0.0,0.0,0.0,0.0,0.0,0.0,0.0,0.0,0.0,0.0,0.0,0.0,0.0,0.0,0.0,0.0,0.0,0.0,0.0,0.0,0.0,0.0,2.9415,2.9428,2.9528,2.9779,2.9792,2.9792,2.9792,2.9792,2.9792,2.9792,2.9792,2.9792,2.9792,2.9792,2.9792,2.9804,3.0118,3.0387,3.0651,3.1499,3.2001,3.2252,3.2851,3.3102,3.3102,3.3102,3.3102,3.3102,3.3102,3.3102,3.3102,3.3102,3.3102,3.3102,3.3102,3.3608,3.4276,3.4603,3.5242,3.5956,3.6293,3.6405,3.6405,3.6405,3.6405,3.6405,3.6405,3.6405,3.6405,3.6405,3.6405,3.6405,3.6405,3.6405,3.6405,3.6405,3.6405,3.6405,3.6405,3.6405,3.6405,3.6405,3.6405,3.6405,3.6405,3.6405,3.6405,3.6405,3.6405,3.6405,3.6405,3.6405,3.6405,3.6405,3.6873,3.7997,3.9855,4.0375,4.1497,4.329,4.2629,4.2664,4.329,4.329,4.329,1.7866,1.8329,0.0,0.0,0.0,0.0,2.2887,2.3223,0.0,0.0,0.0,0.0,0.0,0.0,0.0,0.0,0.0,0.0,0.0,0.0,0.0,0.0,0.0,0.0,0.0,2.8109,2.8292,2.8781,2.8881,2.9157,2.9767,2.9792,2.9792,2.9792,2.9792,2.9792,2.9792,2.9792,2.9792,2.9792,2.9792,2.9792,2.9792,2.9792,3.0068,3.0538,3.1135,3.1675,3.2156,3.2839,3.3102,3.3102,3.3102,3.3102,3.3102,3.3102,3.3102,3.3102,3.3102,3.3102,3.3102,3.3102,3.3822,3.4703,3.4703,3.5491,3.6405,3.6405,3.6405,3.6405,3.6405,3.6405,3.6405,3.6405,3.6405,3.6405,3.6405,3.6405,3.6405,3.6405,3.6405,3.6405,3.6405,3.6405,3.6405,3.6405,3.6405,3.6405,3.6405,3.6405,3.6405,3.6405,3.6405,3.6405,3.6405,3.6405,3.6405,3.6405,3.6405,3.6405,3.6405,3.7368,3.8536,3.9877,4.1148,4.229,4.329,4.329,4.329,4.329,4.329,4.329,1.8983,1.9171,1.9158,0.0,0.0,0.0,0.0,2.1242,0.0,0.0,0.0,0.0,0.0,0.0,0.0,0.0,0.0,0.0,0.0,0.0,0.0,0.0,0.0,0.0,0.0,2.8109,2.8147,2.8242,2.8668,2.9157,2.9767,2.9792,2.9792,2.9792,2.9792,2.9792,2.9792,2.9792,2.9792,2.9792,2.9792,2.9792,2.9792,2.9792,2.9854,3.0005,3.0992,3.1469,3.1637,3.2675,3.3102,3.3102,3.3102,3.3102,3.3102,3.3102,3.3102,3.3102,3.3102,3.3102,3.3102,3.3102,3.3822,3.4703,3.4703,3.5491,3.6405,3.6405,3.6405,3.6405,3.6405,3.6405,3.6405,3.6405,3.6405,3.6405,3.6405,3.6405,3.6405,3.6405,3.6405,3.6405,3.6405,3.6405,3.6405,3.6405,3.6405,3.6405,3.6405,3.6405,3.6405,3.6405,3.6405,3.6405,3.6405,3.6405,3.6405,3.6405,3.6405,3.6405,3.6405,3.6604,3.7736,3.9855,4.1906,4.3076,4.329,4.329,4.329,4.329,4.329,4.329,1.9181,1.9623,1.9974,2.0514,0.0,0.0,0.0,0.0,0.0,0.0,0.0,0.0,0.0,0.0,0.0,0.0,0.0,0.0,0.0,0.0,0.0,0.0,0.0,0.0,0.0,2.7298,2.7412,2.767,2.8442,2.9032,2.9321,2.9641,2.9792,2.9792,2.9792,2.9792,2.9792,2.9792,2.9792,2.9792,2.9792,2.9792,2.9792,2.9792,2.9792,2.9854,3.0922,3.1406,3.1494,3.2638,3.3102,3.3102,3.3102,3.3102,3.3102,3.3102,3.3102,3.3102,3.3102,3.3102,3.3102,3.3102,3.3822,3.4703,3.4703,3.5491,3.6405,3.6405,3.6405,3.6405,3.6405,3.6405,3.6405,3.6405,3.6405,3.6405,3.6405,3.6405,3.6405,3.6405,3.6405,3.6405,3.6405,3.6405,3.6405,3.6405,3.6405,3.6405,3.6405,3.6405,3.6405,3.6405,3.6405,3.6405,3.6405,3.6405,3.6405,3.6405,3.6405,3.6405,3.6405,3.6953,3.8356,4.0703,4.1864,4.2447,4.2447,4.3036,4.329,4.329,4.329,4.3001,0.0,0.0,0.0,0.0,0.0,2.1421,0.0,0.0,0.0,0.0,0.0,0.0,0.0,0.0,0.0,0.0,0.0,0.0,0.0,0.0,0.0,0.0,0.0,0.0,0.0,2.6386,2.66,2.7248,2.8009,2.8568,2.8875,2.9346,2.9679,2.9792,2.9792,2.9792,2.9792,2.9792,2.9792,2.9792,2.9792,2.9792,2.9792,2.9792,2.9792,2.9842,3.0841,3.1298,3.1482,3.2512,3.3002,3.3102,3.3102,3.3102,3.3102,3.3102,3.3102,3.3102,3.3102,3.3102,3.3102,3.3102,3.3822,3.4741,3.4954,3.5678,3.6405,3.6405,3.6405,3.6405,3.6405,3.6405,3.6405,3.6405,3.6405,3.6405,3.6405,3.6405,3.6405,3.6405,3.6405,3.6405,3.6405,3.6405,3.6405,3.6405,3.6405,3.6405,3.6405,3.6405,3.6405,3.6405,3.6405,3.6405,3.6405,3.6405,3.6405,3.6405,3.6405,3.6405,3.6405,3.7507,3.9089,4.1232,4.1274,4.1378,4.1587,4.229,4.2745,4.2961,4.2961,4.2487,0.0,0.0,0.0,0.0,2.2924,0.0,0.0,0.0,0.0,0.0,0.0,0.0,0.0,0.0,0.0,0.0,0.0,0.0,0.0,0.0,0.0,0.0,0.0,0.0,0.0,0.0,2.6155,2.7223,2.6959,2.7399,2.8831,2.8969,2.9245,2.9779,2.9792,2.9792,2.9792,2.9792,2.9792,2.9792,2.9792,2.9792,2.9792,2.9792,2.9792,2.9829,3.0432,3.0972,3.1436,3.2051,3.2616,3.3102,3.3102,3.3102,3.3102,3.3102,3.3102,3.3102,3.3102,3.3102,3.3102,3.3102,3.3822,3.4879,3.5904,3.6293,3.6405,3.6405,3.6405,3.6405,3.6405,3.6405,3.6405,3.6405,3.6405,3.6405,3.6405,3.6405,3.6405,3.6405,3.6405,3.6405,3.6405,3.6405,3.6405,3.6405,3.6405,3.6405,3.6405,3.6405,3.6405,3.6405,3.6405,3.6405,3.6405,3.6405,3.6405,3.6405,3.6405,3.6405,3.6405,3.7507,3.8738,4.0073,4.0094,4.0597,4.1587,4.0724,4.081,4.1788,4.1788,4.1726,0.0,0.0,0.0,0.0,0.0,0.0,0.0,0.0,2.0552,0.0,0.0,0.0,0.0,0.0,0.0,0.0,0.0,0.0,0.0,0.0,0.0,0.0,0.0,0.0,0.0,0.0,0.0,0.0,0.0,2.706,2.8367,2.8731,2.9019,2.927,2.9616,2.9792,2.9792,2.9792,2.9792,2.9792,2.9792,2.9792,2.9792,2.9792,2.9792,2.9829,3.0382,3.0909,3.1436,3.1989,3.2554,3.3102,3.3102,3.3102,3.3102,3.3102,3.3102,3.3102,3.3102,3.3102,3.3203,3.3822,3.4327,3.4904,3.6042,3.6405,3.6405,3.6405,3.6405,3.6405,3.6405,3.6405,3.6405,3.6405,3.6405,3.6405,3.6405,3.6405,3.6405,3.6405,3.6405,3.6405,3.6405,3.6405,3.6405,3.6405,3.6405,3.6405,3.6405,3.6405,3.6405,3.6405,3.6405,3.6405,3.6405,3.6405,3.6405,3.6405,3.6405,3.6405,3.6405,3.6873,3.7655,3.8827,3.885,3.9081,3.9574,3.9798,3.9798,3.9596,4.0282,4.0239,2.1643,0.0,0.0,0.0,0.0,0.0,0.0,0.0,0.0,0.0,0.0,0.0,0.0,0.0,0.0,0.0,0.0,0.0,0.0,0.0,0.0,0.0,0.0,0.0,0.0,0.0,0.0,0.0,0.0,0.0,2.8034,2.8618,2.8888,2.8888,2.949,2.9792,2.9792,2.9792,2.9792,2.9792,2.9792,2.9792,2.9792,2.9792,2.9792,2.9829,3.0382,3.0909,3.1436,3.1989,3.2554,3.3102,3.3102,3.3102,3.3102,3.3102,3.3102,3.3102,3.3102,3.3102,3.3278,3.4339,3.4703,3.4904,3.6042,3.6405,3.6405,3.6405,3.6405,3.6405,3.6405,3.6405,3.6405,3.6405,3.6405,3.6405,3.6405,3.6405,3.6405,3.6405,3.6405,3.6405,3.6405,3.6405,3.6405,3.6405,3.6405,3.6405,3.6405,3.6405,3.6405,3.6405,3.6405,3.6405,3.6405,3.6405,3.6405,3.6405,3.6405,3.6405,3.6405,3.6405,3.693,3.8085,3.7779,3.7779,3.8107,3.8684,3.8482,3.7655,3.885,3.8939,0.0,0.0,0.0,2.3403,0.0,0.0,0.0,0.0,2.2069,0.0,0.0,0.0,0.0,0.0,0.0,2.167,0.0,0.0,0.0,0.0,0.0,0.0,0.0,0.0,0.0,0.0,0.0,0.0,0.0,0.0,2.8009,2.8618,2.8888,2.8888,2.949,2.9792,2.9792,2.9792,2.9792,2.9792,2.9792,2.9792,2.9792,2.9792,2.9792,2.9829,3.0382,3.0909,3.1436,3.1989,3.2554,3.3102,3.3102,3.3102,3.3102,3.3102,3.3102,3.3102,3.3102,3.3102,3.3278,3.4339,3.4703,3.4904,3.6042,3.6405,3.6405,3.6405,3.6405,3.6405,3.6405,3.6405,3.6405,3.6405,3.6405,3.6405,3.6405,3.6405,3.6405,3.6405,3.6405,3.6405,3.6405,3.6405,3.6405,3.6405,3.6405,3.6405,3.6405,3.6405,3.6405,3.6405,3.6405,3.6405,3.6405,3.6405,3.6405,3.6405,3.6405,3.6405,3.6405,3.6405,3.693,3.8085,3.7023,3.7,3.8107,3.7023,3.6499,3.6476,3.7632,3.813,0.0,0.0,2.6159,2.4611,0.0,0.0,0.0,0.0,0.0,0.0,0.0,0.0,0.0,0.0,2.2869,2.2159,2.2169,0.0,0.0,0.0,0.0,0.0,0.0,0.0,0.0,0.0,0.0,0.0,2.6608,0.0,0.0,2.8267,2.8367,2.8367,2.8907,2.9402,2.9792,2.9792,2.9792,2.9792,2.9792,2.9792,2.9792,2.9792,2.9792,2.9804,2.9993,3.057,3.1399,3.1587,3.2248,3.3102,3.3102,3.3102,3.3102,3.3102,3.3102,3.3102,3.3102,3.3341,3.3746,3.4465,3.4941,3.538,3.6168,3.6405,3.6405,3.6405,3.6405,3.6405,3.6405,3.6405,3.6405,3.6405,3.6405,3.6405,3.6405,3.6405,3.6405,3.6405,3.6405,3.6405,3.6405,3.6405,3.6405,3.6405,3.6405,3.6405,3.6405,3.6405,3.6405,3.6405,3.6405,3.6405,3.6405,3.6405,3.6405,3.6405,3.6405,3.6405,3.6405,3.6405,3.6581,3.6977,3.6604,3.6581,3.6977,3.6581,3.6405,3.6405,3.6803,3.6977,2.2867,2.4767,0.0,2.5086,2.4804,0.0,2.2498,0.0,0.0,0.0,0.0,0.0,0.0,0.0,0.0,2.3273,2.2684,0.0,0.0,0.0,0.0,0.0,0.0,0.0,0.0,0.0,2.5854,2.7198,2.6432,0.0,0.0,0.0,2.8197,2.838,2.8718,2.9183,2.9779,2.9792,2.9792,2.9792,2.9792,2.9792,2.9792,2.9792,2.9792,2.9804,2.9993,3.0583,3.1399,3.1599,3.224,3.3102,3.3102,3.3102,3.3102,3.3102,3.3102,3.3102,3.3102,3.3454,3.3985,3.4527,3.5067,3.5596,3.6218,3.6405,3.6405,3.6405,3.6405,3.6405,3.6405,3.6405,3.6405,3.6405,3.6405,3.6405,3.6405,3.6405,3.6405,3.6405,3.6405,3.6405,3.6405,3.6405,3.6405,3.6405,3.6405,3.6405,3.6405,3.6405,3.6405,3.6405,3.6405,3.6405,3.6405,3.6405,3.6405,3.6405,3.6405,3.6405,3.6405,3.6405,3.6405,3.6405,3.6405,3.6405,3.6405,3.6405,3.6405,3.6405,3.6405,3.6405]},{"header":{"parameterUnit":"m.s-1","parameterCategory":1,"la1":30.6,"la2":29.2853,"lo1":-89.7004,"lo2":-87.6739,"dy":0.0162,"dx":0.0183,"nx":112,"ny":82,"refTime":"2026-02-24T12:00:00:Z","depth":0,"parameterNumber":3,"parameterNumberName":"V-component_of_WINDS"},"data":[0.0,0.0,0.0,0.0,0.0,0.0,0.0,0.0,0.0,0.0,0.0,0.0,0.0,0.0,0.0,0.0,0.0,0.0,0.0,0.0,0.0,0.0,0.0,0.0,0.0,0.0,0.0,0.0,0.0,0.0,0.0,0.0,0.0,0.0,0.0,0.0,0.0,0.0,0.0,0.0,0.0,0.0,0.0,0.0,0.0,0.0,0.0,0.0,0.0,0.0,0.0,0.0,0.0,0.0,0.0,0.0,0.0,0.0,0.0,0.0,0.0,0.0,0.0,0.0,0.0,0.0,0.0,0.0,0.0,0.0,0.0,0.0,0.0,0.0,0.0,0.0,0.0,0.0,0.0,0.0,0.0,0.0,0.0,0.0,0.0,0.0,0.0,0.0,0.0,0.0,0.0,1.3139,1.3316,1.3874,1.5065,1.5096,1.5405,1.6165,0.0,0.0,0.0,0.0,0.0,0.0,0.0,0.0,0.0,0.0,0.0,0.0,0.0,0.0,0.0,0.0,0.0,0.0,0.0,0.0,0.0,0.0,0.0,0.0,0.0,0.0,0.0,0.0,0.0,0.0,0.0,0.0,0.0,0.0,0.0,0.0,0.0,0.0,0.0,0.0,0.0,0.0,0.0,0.0,0.0,0.0,0.0,0.0,0.0,0.0,0.0,0.0,0.0,0.0,0.0,0.0,0.0,0.0,0.0,0.0,0.0,0.0,0.0,0.0,0.0,0.0,0.0,0.0,0.0,0.0,0.0,0.0,0.0,0.0,0.0,0.0,0.0,0.0,0.0,0.0,0.0,0.0,0.0,0.0,0.0,0.0,0.0,0.0,0.0,0.0,0.0,0.0,0.0,0.0,0.0,0.0,0.0,0.0,0.0,0.0,0.0,0.0,0.0,0.0,1.2239,1.332,1.3167,1.3414,1.4445,1.4226,1.4301,1.4937,0.0,0.0,0.0,0.0,0.0,0.0,0.0,0.0,0.0,0.0,0.0,0.0,0.0,0.0,0.0,0.0,0.0,0.0,0.0,0.0,0.0,0.0,0.0,0.0,0.0,0.0,0.0,0.0,0.0,0.0,0.0,0.0,0.0,0.0,0.0,0.0,0.0,0.0,0.0,0.0,0.0,0.0,0.0,0.0,0.0,0.0,0.0,0.0,0.0,0.0,0.0,0.0,0.0,0.0,0.0,0.0,0.0,0.0,0.0,0.0,0.0,0.0,0.0,0.0,0.0,0.0,0.0,0.0,0.0,0.0,0.0,0.0,0.0,0.0,0.0,0.0,0.0,0.0,0.0,0.0,0.0,0.0,0.0,0.0,0.0,0.0,0.0,0.0,0.0,0.0,0.0,0.0,0.0,0.0,0.0,0.0,0.0,0.0,0.0,0.0,0.0,0.0,0.0,1.2894,1.33,1.3763,1.3993,1.4403,1.5198,1.5201,1.5303,1.5645,1.5194,0.0,0.0,0.0,0.0,0.0,0.0,0.0,0.0,0.0,0.0,0.0,0.0,0.0,0.0,0.0,0.0,0.0,0.0,0.0,0.0,0.0,0.0,0.0,0.0,0.0,0.0,0.0,0.0,0.0,0.0,0.0,0.0,0.0,0.0,0.0,0.0,0.0,0.0,0.0,0.0,0.0,0.0,0.0,0.0,0.0,0.0,0.0,0.0,0.0,0.0,0.0,0.0,0.0,0.0,0.0,0.0,0.0,0.0,0.0,0.0,0.0,0.0,0.0,0.0,0.0,0.0,0.0,0.0,0.0,0.0,0.0,0.0,0.0,0.0,0.0,0.0,0.0,0.0,0.0,0.0,0.0,0.0,0.0,0.0,0.0,0.0,0.0,0.0,0.0,0.0,0.0,0.0,0.0,0.0,0.0,0.0,0.0,0.0,0.0,0.0,0.0,0.0,1.3498,1.4314,1.4122,1.4465,1.5007,1.5722,1.5749,1.588,1.6262,1.5275,0.0,0.0,0.0,0.0,0.0,0.0,0.0,0.0,0.0,0.0,0.0,0.0,0.0,0.0,0.0,0.0,0.0,0.0,0.0,0.0,0.0,0.0,0.0,0.0,0.0,0.0,0.0,0.0,0.0,0.0,0.0,0.0,0.0,0.0,0.0,0.0,0.0,0.0,0.0,0.0,0.0,0.0,0.0,0.0,0.0,0.0,0.0,0.0,0.0,0.0,0.0,0.0,0.0,0.0,0.0,0.0,0.0,0.0,0.0,0.0,0.0,0.0,0.0,0.0,0.0,0.0,0.0,0.0,0.0,0.0,0.0,0.0,0.0,0.0,0.0,0.0,0.0,0.0,0.0,0.0,0.0,0.0,0.0,0.0,0.0,0.0,0.0,0.0,0.0,0.0,0.0,0.0,0.0,0.0,0.0,0.0,0.0,0.0,0.0,0.0,0.0,0.0,1.3498,1.4314,1.4122,1.3815,1.4033,1.5076,1.4431,1.4455,1.5588,1.4657,0.0,0.0,0.0,0.0,0.0,0.0,0.0,0.0,0.0,0.0,0.0,0.0,0.0,0.0,0.0,0.0,0.0,0.0,0.0,0.0,0.0,0.0,0.0,0.0,0.0,0.0,0.0,0.0,0.0,0.0,0.0,0.0,0.0,0.0,0.0,0.0,0.0,0.0,0.0,0.0,0.0,0.0,0.0,0.0,0.0,0.0,0.0,0.0,0.0,0.0,0.0,0.0,0.0,0.0,0.0,0.0,0.0,0.0,0.0,0.0,0.0,0.0,0.0,0.0,0.0,0.0,0.0,0.0,0.0,0.0,0.0,0.0,0.0,0.0,0.0,0.0,0.0,0.0,0.0,0.0,0.0,0.0,0.0,0.0,0.0,0.0,0.0,0.0,0.0,0.0,0.0,0.0,0.0,0.0,0.0,0.0,0.0,0.0,0.0,0.0,0.0,0.0,1.4377,1.5336,0.0,1.5368,1.5914,1.6317,1.5823,1.5677,1.614,0.0,0.0,0.0,0.0,0.0,0.0,0.0,0.0,0.0,0.0,0.0,0.0,0.0,0.0,0.0,0.0,0.0,0.0,0.0,0.0,0.0,0.0,0.0,0.0,0.0,0.0,0.0,0.0,0.0,0.0,0.0,0.0,0.0,0.0,0.0,0.0,0.0,0.0,0.0,0.0,0.0,0.0,0.0,0.0,0.0,0.0,0.0,0.0,0.0,0.0,0.0,0.0,0.0,0.0,0.0,0.0,0.0,0.0,0.0,0.0,0.0,0.0,0.0,0.0,0.0,0.0,0.0,0.0,0.0,0.0,0.0,0.0,0.0,0.0,0.0,0.0,0.0,0.0,0.0,0.0,0.0,0.0,0.0,0.0,0.0,0.0,0.0,0.0,0.0,0.0,0.0,0.0,0.0,0.0,0.0,0.0,0.0,0.0,0.0,0.0,0.0,0.0,1.364,1.528,1.6297,0.0,1.6395,1.6888,1.7084,1.6561,1.623,1.6237,0.0,0.0,0.0,0.0,0.0,0.0,0.0,0.0,0.0,0.0,0.0,0.0,0.0,0.0,0.0,0.0,0.0,0.0,0.0,0.0,0.0,0.0,0.0,0.0,0.0,0.0,0.0,0.0,0.0,0.0,0.0,0.0,0.0,0.0,0.0,0.0,0.0,0.0,0.0,0.0,0.0,0.0,0.0,0.0,0.0,0.0,0.0,0.0,0.0,0.0,0.0,0.0,0.0,0.0,0.0,0.0,0.0,0.0,0.0,0.0,0.0,0.0,0.0,0.0,0.0,0.0,0.0,0.0,0.0,0.0,0.0,0.0,0.0,0.0,0.0,0.0,0.0,0.0,0.0,0.0,0.0,0.0,0.0,0.0,0.0,0.0,0.0,0.0,0.0,0.0,0.0,0.0,0.0,0.0,0.0,0.0,0.0,0.0,0.0,0.0,0.0,0.0,1.4637,1.6073,1.7086,1.7017,1.6543,1.6465,1.7059,1.6194,1.5647,0.0,0.0,0.0,0.0,0.0,0.0,0.0,0.0,0.0,0.0,0.0,0.0,0.0,0.0,0.0,0.0,0.0,0.0,0.0,0.0,0.0,0.0,0.0,0.0,0.0,0.0,0.0,0.0,0.0,0.0,0.0,0.0,0.0,0.0,0.0,0.0,0.0,0.0,0.0,0.0,0.0,0.0,0.0,0.0,0.0,0.0,0.0,0.0,0.0,0.0,0.0,0.0,0.0,0.0,0.0,0.0,0.0,0.0,0.0,0.0,0.0,0.0,0.0,0.0,0.0,0.0,0.0,0.0,0.0,0.0,0.0,0.0,0.0,0.0,0.0,0.0,0.0,0.0,0.0,0.0,0.0,0.0,0.0,0.0,0.0,0.0,0.0,0.0,0.0,0.0,0.0,0.0,0.0,0.0,0.0,0.0,0.0,0.0,0.0,0.0,0.0,0.0,0.0,0.0,1.6776,1.7849,1.7791,1.8012,1.8093,1.7882,1.725,1.6534,1.5756,0.0,0.0,0.0,0.0,0.0,0.0,0.0,0.0,0.0,0.0,0.0,0.0,0.0,0.0,0.0,0.0,0.0,0.0,0.0,0.0,0.0,0.0,0.0,0.0,0.0,0.0,0.0,0.0,0.0,0.0,0.0,0.0,0.0,0.0,0.0,0.0,0.0,0.0,0.0,0.0,0.0,0.0,0.0,0.0,0.0,0.0,0.0,0.0,0.0,0.0,0.0,0.0,0.0,0.0,0.0,0.0,0.0,0.0,0.0,0.0,0.0,0.0,0.0,0.0,0.0,0.0,0.0,0.0,0.0,0.0,0.0,0.0,0.0,0.0,0.0,0.0,0.0,0.0,0.0,0.0,0.0,0.0,0.0,0.0,0.0,0.0,0.0,0.0,0.0,0.0,0.0,0.0,0.0,0.0,0.0,0.0,0.0,0.0,0.0,0.0,0.0,0.0,1.6102,1.7375,1.8348,1.8742,1.8908,1.8782,1.8254,1.7713,1.682,1.5475,0.0,0.0,0.0,0.0,0.0,0.0,0.0,0.0,0.0,0.0,0.0,0.0,0.0,0.0,0.0,0.0,0.0,0.0,0.0,0.0,0.0,0.0,0.0,0.0,0.0,0.0,0.0,0.0,0.0,0.0,0.0,0.0,0.0,0.0,0.0,0.0,0.0,0.0,0.0,0.0,0.0,0.0,0.0,0.0,0.0,0.0,0.0,0.0,0.0,0.0,0.0,0.0,0.0,0.0,0.0,0.0,0.0,0.0,0.0,0.0,0.0,0.0,0.0,0.0,0.0,0.0,0.0,0.0,0.0,0.0,0.0,0.0,0.0,0.0,0.0,0.0,0.0,0.0,0.0,0.0,0.0,0.0,0.0,0.0,0.0,0.0,0.0,0.0,0.0,0.0,0.0,0.0,0.0,0.0,0.0,0.0,0.0,0.0,0.0,0.0,0.0,0.0,1.7087,1.7834,1.8618,1.9685,1.9371,1.887,1.8318,1.7777,1.6757,1.5082,0.0,0.0,0.0,0.0,0.0,0.0,0.0,0.0,0.0,0.0,0.0,0.0,0.0,0.0,0.0,0.0,0.0,0.0,0.0,0.0,0.0,0.0,0.0,0.0,0.0,0.0,0.0,0.0,0.0,0.0,0.0,0.0,0.0,0.0,0.0,0.0,0.0,0.0,0.0,0.0,0.0,0.0,0.0,0.0,0.0,0.0,0.0,0.0,0.0,0.0,0.0,0.0,0.0,0.0,0.0,0.0,0.0,0.0,0.0,0.0,1.954,0.0,0.0,0.0,0.0,0.0,0.0,0.0,0.0,0.0,0.0,0.0,0.0,0.0,0.0,0.0,0.0,0.0,0.0,0.0,0.0,0.0,0.0,0.0,0.0,0.0,0.0,0.0,0.0,0.0,0.0,0.0,0.0,0.0,0.0,0.0,0.0,0.0,0.0,0.0,0.0,0.0,1.7087,1.7834,1.8618,1.9685,1.9698,1.9409,1.887,1.833,1.7313,1.564,0.0,0.0,0.0,0.0,0.0,0.0,0.0,0.0,0.0,0.0,0.0,0.0,0.0,0.0,0.0,0.0,0.0,0.0,0.0,0.0,0.0,0.0,0.0,0.0,0.0,0.0,0.0,0.0,0.0,0.0,0.0,0.0,0.0,0.0,0.0,0.0,0.0,0.0,0.0,0.0,0.0,0.0,0.0,0.0,0.0,0.0,0.0,0.0,0.0,0.0,0.0,0.0,0.0,0.0,0.0,0.0,0.0,0.0,0.0,0.0,0.0,2.0333,0.0,0.0,0.0,0.0,0.0,0.0,0.0,0.0,0.0,0.0,0.0,0.0,0.0,0.0,0.0,0.0,0.0,0.0,0.0,0.0,0.0,0.0,0.0,0.0,0.0,0.0,0.0,0.0,0.0,0.0,0.0,0.0,0.0,0.0,0.0,0.0,0.0,0.0,0.0,0.0,1.7553,1.8225,1.8895,1.971,1.9798,1.9585,1.9045,1.8744,1.7866,1.6185,1.5324,0.0,0.0,0.0,0.0,0.0,0.0,0.0,0.0,0.0,0.0,0.0,0.0,0.0,0.0,0.0,0.0,0.0,0.0,0.0,0.0,0.0,0.0,0.0,0.0,0.0,0.0,0.0,0.0,0.0,0.0,0.0,0.0,0.0,0.0,0.0,0.0,0.0,0.0,0.0,0.0,0.0,0.0,0.0,0.0,0.0,0.0,0.0,0.0,0.0,0.0,0.0,0.0,0.0,2.2887,2.3471,2.3924,2.3426,2.3486,2.3894,2.2832,2.2188,2.1829,0.0,0.0,0.0,0.0,0.0,0.0,0.0,0.0,0.0,0.0,0.0,0.0,0.0,0.0,0.0,0.0,0.0,0.0,0.0,0.0,0.0,0.0,0.0,0.0,0.0,1.9902,1.8869,0.0,0.0,0.0,0.0,0.0,0.0,0.0,0.0,0.0,0.0,0.0,0.0,1.8042,1.8669,1.9221,1.9735,1.9798,1.961,1.9171,1.9058,1.8331,1.6762,1.6047,1.504,0.0,0.0,0.0,0.0,0.0,0.0,0.0,0.0,0.0,0.0,0.0,0.0,0.0,0.0,0.0,0.0,0.0,0.0,0.0,0.0,0.0,0.0,0.0,0.0,0.0,0.0,0.0,0.0,0.0,0.0,0.0,0.0,1.7818,1.8484,0.0,0.0,0.0,0.0,0.0,0.0,0.0,0.0,0.0,0.0,0.0,0.0,0.0,0.0,2.2164,2.3449,2.4141,2.4231,2.49,2.5259,2.5319,2.5244,2.5259,2.5319,2.5154,0.0,2.2568,2.2478,0.0,0.0,0.0,0.0,0.0,0.0,0.0,0.0,0.0,0.0,0.0,0.0,0.0,0.0,0.0,0.0,0.0,0.0,0.0,0.0,0.0,0.0,2.2073,2.1596,2.1151,2.0443,0.0,1.7413,1.6122,1.558,1.473,0.0,0.0,0.0,0.0,0.0,0.0,0.0,1.8042,1.8669,1.9221,1.9735,1.9798,1.9773,1.971,1.9271,1.8518,1.7349,1.6294,1.5389,1.4695,1.3663,0.0,0.0,0.0,0.0,0.0,0.0,0.0,0.0,0.0,0.0,0.0,0.0,0.0,0.0,0.0,0.0,0.0,0.0,0.0,0.0,0.0,0.0,0.0,0.0,0.0,0.0,0.0,0.0,0.0,1.7999,1.8927,1.9235,1.9591,1.969,0.0,0.0,0.0,0.0,0.0,0.0,0.0,0.0,0.0,2.1869,2.2821,2.3644,2.4313,2.5255,2.6096,2.6859,2.7156,2.7485,2.7857,2.7857,2.7857,2.7857,2.7857,2.7141,2.5896,2.4388,2.3419,2.2856,0.0,0.0,0.0,0.0,2.2836,2.2877,2.3625,2.3644,0.0,0.0,0.0,0.0,0.0,0.0,0.0,0.0,0.0,0.0,0.0,0.0,0.0,2.3803,2.3178,2.2346,2.1769,1.99,1.8028,0.0,1.6005,1.5527,1.5766,0.0,0.0,0.0,0.0,0.0,1.8556,1.9409,1.9924,1.9811,2.01,2.0175,1.9823,1.9585,1.912,1.8355,1.7551,1.671,1.5831,1.503,1.4315,0.0,0.0,0.0,0.0,0.0,0.0,0.0,0.0,0.0,0.0,0.0,0.0,0.0,0.0,0.0,0.0,0.0,0.0,0.0,0.0,0.0,0.0,0.0,0.0,0.0,0.0,0.0,0.0,1.8993,1.9893,1.9714,2.0438,2.0692,0.0,0.0,0.0,0.0,0.0,0.0,2.2882,2.3257,2.365,2.4103,2.5083,2.586,2.6366,2.7021,2.7872,2.8859,2.8859,2.9114,2.9593,2.9593,2.9593,2.9593,2.9593,2.9324,2.8682,2.6515,2.5322,2.4814,2.4302,2.4014,2.3928,2.4605,2.4646,2.4522,2.5704,2.5794,2.5289,2.4792,0.0,2.3909,2.2787,0.0,0.0,0.0,0.0,2.3072,2.4482,2.4698,2.4699,2.5431,2.4973,2.4232,2.3707,2.211,2.0232,0.0,1.7325,1.6774,1.6912,0.0,0.0,0.0,0.0,1.8744,1.9146,2.0201,2.0729,2.0275,2.064,2.0666,2.0088,2.0024,1.9748,1.9045,1.8631,1.7966,1.6975,1.6271,1.5527,1.473,0.0,0.0,0.0,0.0,0.0,0.0,0.0,0.0,0.0,0.0,0.0,0.0,0.0,0.0,0.0,0.0,0.0,0.0,0.0,0.0,0.0,0.0,0.0,0.0,0.0,0.0,0.0,0.0,0.0,1.9774,2.0851,0.0,0.0,0.0,0.0,2.2598,2.3127,2.3475,2.355,2.475,2.5468,2.5498,2.7395,2.8427,2.8442,2.9114,2.9473,2.9548,2.9548,2.9577,2.9593,2.9593,2.9593,2.9593,2.9593,2.9578,2.9488,2.8712,2.7263,2.5543,2.5513,2.5109,2.4634,2.5304,2.5929,2.6554,2.7255,2.748,2.7435,2.7405,2.6539,2.5364,2.4664,2.4011,0.0,0.0,2.4496,2.4641,2.5367,2.5995,2.6309,2.5737,2.6031,2.5933,2.4008,2.3496,2.2661,0.0,1.8417,1.7512,1.8028,0.0,1.75,1.8029,1.9032,1.9736,1.9761,2.074,2.1457,2.1419,2.1444,2.1243,2.0691,2.0641,2.0175,1.907,1.897,1.8719,1.8141,1.705,1.6425,1.6385,1.4856,0.0,0.0,0.0,0.0,0.0,0.0,0.0,0.0,0.0,0.0,0.0,0.0,0.0,0.0,0.0,0.0,0.0,0.0,0.0,0.0,0.0,0.0,0.0,0.0,0.0,0.0,0.0,0.0,2.1655,2.2772,0.0,0.0,2.2996,2.3635,2.4492,2.4777,2.545,2.6752,2.7275,2.7724,2.8156,2.8874,2.9443,2.9819,3.0058,3.0402,3.0822,3.0822,3.1046,3.145,3.1017,3.1061,3.145,3.1002,3.0822,3.0807,3.0554,2.9551,2.8171,2.8171,2.8023,2.7844,2.8096,2.8321,2.856,2.88,2.8888,2.8828,2.838,2.7632,2.6839,2.6599,2.6662,2.6871,2.7111,2.7485,2.7874,2.8111,2.8351,2.847,2.8231,2.7671,2.6977,2.6269,2.4721,2.3191,2.2295,2.0706,1.9585,1.9786,1.9334,1.9145,1.9723,2.0138,2.0502,2.0854,2.1543,2.1882,2.1545,2.1807,2.1794,2.1256,2.0893,2.0528,2.0125,1.9736,1.9271,1.8744,1.7991,1.7251,1.6513,1.5261,1.4516,0.0,0.0,0.0,0.0,0.0,0.0,0.0,0.0,0.0,0.0,0.0,0.0,0.0,0.0,0.0,0.0,0.0,0.0,0.0,0.0,0.0,0.0,0.0,0.0,0.0,0.0,2.3082,2.331,2.4492,2.5094,2.4668,2.5016,2.5659,2.6557,2.6826,2.753,2.8874,2.9131,2.9445,2.9892,3.0341,3.0761,3.1166,3.1405,3.1749,3.2168,3.2168,3.2407,3.2811,3.2138,3.2078,3.2482,3.2033,3.1839,3.1854,3.2079,3.1689,3.085,3.0177,2.9773,2.9623,2.9832,2.9907,2.9937,3.0163,3.0088,2.9832,2.9385,2.88,2.8274,2.8274,2.8603,2.8949,2.8949,2.9264,2.9593,2.9593,2.9593,2.9593,2.9593,2.8897,2.8053,2.7526,2.5826,2.4259,2.3702,2.2173,2.0968,2.0968,2.064,2.0501,2.0918,2.1118,2.1369,2.1719,2.2232,2.2433,2.2083,2.2357,2.2357,2.1807,2.1268,2.0893,2.0717,2.0138,1.956,1.902,1.8481,1.7753,1.6812,1.555,1.4906,1.4906,0.0,0.0,0.0,0.0,0.0,0.0,0.0,0.0,0.0,0.0,0.0,0.0,0.0,0.0,0.0,0.0,0.0,0.0,0.0,0.0,0.0,0.0,0.0,2.0823,2.2488,2.3943,2.4649,2.5887,2.6689,2.6689,2.7874,2.8637,2.8667,2.9264,2.9638,2.9653,3.0223,3.0567,3.0567,3.1839,3.2527,3.2527,3.3185,3.3499,3.3499,3.3499,3.3499,3.3469,3.2811,3.2497,3.2497,3.2482,3.2467,3.2527,3.317,3.344,3.3275,3.1345,3.0252,2.9788,3.0372,3.0597,3.0687,3.1331,3.1151,3.0597,3.0567,3.0177,2.9696,2.9668,2.9653,2.9653,2.9653,2.9653,2.9653,2.9653,2.9653,2.9653,2.9653,2.9638,2.9182,2.7618,2.681,2.5961,2.4376,2.274,2.1595,2.1557,2.1557,2.1557,2.1557,2.1995,0.0,2.232,2.2782,2.3108,2.3108,2.3108,2.2895,2.237,2.182,2.1268,2.0768,2.0125,1.9547,1.9045,1.8493,1.7964,1.7436,1.5827,1.4994,1.4981,0.0,0.0,0.0,0.0,0.0,0.0,0.0,0.0,0.0,0.0,0.0,0.0,0.0,0.0,0.0,0.0,0.0,0.0,0.0,0.0,0.0,0.0,2.3528,2.3528,2.4837,2.6198,2.7365,2.8248,2.877,2.877,2.9114,2.9518,2.9939,3.0148,3.0462,3.0957,3.16,3.1944,3.1944,3.2781,3.323,3.323,3.341,3.3499,3.3499,3.3499,3.3499,3.3469,3.2811,3.2497,3.2467,3.1989,3.1765,3.1795,3.1974,3.2347,3.2781,3.2706,3.2572,3.2452,3.2602,3.2677,3.2706,3.2886,3.2826,3.2602,3.2108,3.1854,3.16,3.1136,3.0987,3.0987,3.0987,3.0987,3.0987,3.0987,3.0987,3.0987,3.0987,3.0598,2.9958,2.8943,2.7788,2.6664,2.5588,2.457,2.3625,2.2794,2.2671,2.2671,2.2671,2.2782,0.0,2.2882,2.3007,2.3108,2.3108,2.3108,2.3045,2.2895,2.2033,2.1444,2.1294,1.9974,1.9334,1.956,1.8681,1.8129,1.7978,1.7526,1.7098,0.0,0.0,0.0,0.0,0.0,0.0,0.0,0.0,0.0,0.0,0.0,0.0,0.0,0.0,0.0,0.0,0.0,0.0,0.0,0.0,0.0,0.0,2.4494,2.5737,2.6575,2.7126,2.7919,2.9235,2.9744,3.0102,3.0372,3.0657,3.0956,3.1301,3.1599,3.1928,3.2318,3.2706,3.2916,3.2916,3.3559,3.3919,3.3919,3.4203,3.4337,3.4337,3.4038,3.3919,3.3889,3.2931,3.2497,0.0,3.2093,3.1914,3.1929,3.2228,3.2572,0.0,0.0,0.0,0.0,0.0,3.3499,3.3499,3.3499,3.3499,3.344,3.3051,3.2916,3.2841,3.2452,3.2347,3.2288,3.1989,3.1914,3.1854,3.157,3.1511,3.1511,3.1511,3.1197,3.0698,2.9884,2.888,2.7762,2.6556,2.5787,0.0,2.4001,2.381,2.381,2.381,2.3609,2.3487,2.3487,2.3258,2.3108,2.3108,2.3108,2.3108,2.3108,2.232,0.0,0.0,0.0,1.9648,1.9472,1.8644,0.0,0.0,0.0,0.0,0.0,0.0,0.0,0.0,1.7899,1.779,0.0,0.0,0.0,0.0,0.0,0.0,0.0,0.0,0.0,0.0,0.0,0.0,0.0,0.0,0.0,0.0,2.6066,2.7587,2.9443,2.931,2.946,3.0597,3.0731,3.0987,3.166,3.2258,3.2602,3.2602,3.3155,3.3499,3.3499,0.0,0.0,0.0,0.0,3.4607,3.4607,3.519,3.5474,3.5385,3.4787,3.4413,3.4233,3.3036,3.2467,3.2392,3.2392,3.2392,3.2437,3.3036,3.332,3.3335,3.2826,3.308,3.3709,3.3634,3.3649,3.3724,3.3724,0.0,0.0,3.3649,3.3604,3.3589,3.3514,3.3499,3.3365,3.2691,3.2497,3.2347,3.1675,3.1511,3.1511,3.1511,3.1511,3.1278,3.0479,2.9882,2.8991,2.7324,2.6609,2.6015,2.5142,2.4892,2.4804,2.4804,2.439,2.4067,2.4004,2.3537,2.3183,2.3108,0.0,0.0,2.3108,2.2621,2.2108,2.162,2.1094,2.0301,1.9246,1.8794,1.8581,1.8581,1.9045,1.9887,2.1091,2.1055,2.1351,2.1928,1.9644,1.9083,0.0,0.0,0.0,0.0,0.0,0.0,0.0,0.0,0.0,0.0,0.0,0.0,0.0,0.0,0.0,2.6802,2.8104,2.9324,3.0193,3.115,3.1839,3.2078,3.2108,3.2377,3.3051,3.323,3.3305,3.3305,3.3425,3.3499,3.3499,3.4009,0.0,3.4308,3.4951,3.531,3.531,3.5444,3.5235,3.4682,0.0,0.0,3.2886,3.2617,3.2198,3.169,3.169,3.169,3.1705,3.1824,3.2213,3.2721,3.3155,3.4053,3.5055,3.4503,3.4652,3.5115,3.5115,3.5115,3.5026,3.4473,3.4308,3.4203,3.3649,3.3499,0.0,3.2691,3.2497,3.2347,3.1675,3.1511,3.1511,3.1511,3.1511,3.1278,3.0479,3.0213,2.9613,2.7878,2.7456,2.7128,2.6312,2.541,2.4804,2.4804,2.4716,2.449,2.4054,2.3904,2.3637,2.3158,2.3108,2.3108,2.3108,2.2621,2.2272,2.2159,2.1631,2.1042,2.0402,2.0691,2.0853,2.0853,2.0953,2.1422,2.226,2.2789,2.3066,2.3053,2.1561,2.0966,0.0,0.0,0.0,0.0,0.0,0.0,0.0,0.0,0.0,0.0,0.0,2.5105,0.0,0.0,2.7713,2.8869,2.9881,3.0762,3.1405,3.2377,3.2886,3.2542,3.2796,3.314,3.3469,3.3799,3.3994,3.3994,3.4307,3.4502,3.4502,3.4832,3.5012,3.5012,3.5325,3.5504,3.5504,3.516,3.4832,3.4503,3.3829,3.3155,3.2482,3.2153,3.1809,3.1511,3.1511,3.169,3.2033,3.2362,3.2901,3.3499,3.3499,3.3903,3.4457,3.4128,3.4203,3.4502,3.4502,3.4502,3.4442,3.4113,3.3994,3.3934,3.3589,3.3499,3.3365,3.2691,3.2497,3.2347,3.1675,3.1511,3.1511,3.1511,3.1511,3.1394,3.0999,3.0896,3.0524,2.9254,2.8652,2.8084,2.7246,2.629,2.5653,2.5653,2.5398,2.5093,2.4833,2.433,2.3891,2.3587,2.3283,2.3221,2.3524,2.3035,2.2596,2.232,2.2058,2.1782,2.1507,2.202,2.2499,2.2945,2.3202,2.3931,2.5103,2.5341,2.5401,2.5285,2.428,2.3641,0.0,0.0,0.0,0.0,0.0,0.0,0.0,0.0,2.4678,2.6175,2.6629,2.7187,2.8553,2.8927,2.9459,3.075,3.1371,3.1929,3.2602,3.3275,3.3484,3.2961,3.3365,3.3754,3.3873,3.4383,3.4682,3.4682,3.519,3.5504,3.5504,3.5504,3.5504,3.5504,3.5504,3.5504,3.5504,3.4951,3.4622,3.4503,3.3395,3.2811,3.2677,3.2123,3.1884,3.1884,3.1884,3.2198,3.2736,3.3275,3.3814,3.4248,3.3724,3.3499,3.353,3.3664,3.3769,3.3888,3.3888,3.3888,3.3888,3.3888,3.3888,3.3888,3.3888,3.3888,3.3724,3.2916,3.2691,3.2512,3.1705,3.1511,3.1511,3.1511,3.1511,3.1511,3.1511,3.1511,3.1263,3.045,2.9721,2.8923,2.7871,2.7162,2.6692,2.6521,2.5979,2.5561,2.546,2.4607,2.3954,2.3841,2.3399,2.3296,2.3775,2.3487,2.3098,2.2673,2.2721,2.2784,2.2784,2.3195,2.3757,2.445,2.4895,2.5909,2.7521,2.7495,2.7593,2.7777,2.7021,2.6175,2.5389,2.4754,2.4363,2.4271,2.4754,2.5601,0.0,0.0,2.7739,2.9287,3.0118,3.0663,3.0912,3.1546,3.206,3.2187,3.2303,3.2617,3.329,3.3964,3.4353,3.4278,3.4338,3.4622,3.522,3.534,3.5385,3.5385,3.5459,3.5504,3.5504,3.5504,3.5504,3.5504,3.5504,3.5504,3.5504,3.5429,3.5085,3.4503,3.4338,3.3964,3.338,3.3305,3.3275,3.3275,3.3275,3.332,3.3395,3.3469,3.3544,3.3589,3.3529,3.3499,3.3559,3.4158,3.4772,3.528,3.528,3.528,3.528,3.528,3.528,3.528,3.528,3.528,3.5011,3.3739,3.338,3.3095,3.1824,3.1511,3.1511,3.1511,3.1511,3.1511,3.1511,3.1511,3.1263,3.045,3.0223,2.9628,2.7986,2.762,2.7317,2.6607,2.5979,2.5435,2.4954,2.4365,2.3788,2.3258,2.3145,2.3133,2.3195,2.3625,2.3879,2.3816,2.4252,2.4528,2.4528,2.4591,2.4664,2.4747,2.481,2.5649,2.7244,2.7825,2.8729,2.9932,2.9077,2.7549,2.6962,2.6336,0.0,0.0,2.6683,2.7749,2.8366,2.883,2.9557,3.1072,3.1345,3.169,3.2924,3.2809,3.2752,0.0,3.3651,3.3769,3.4039,3.4667,3.4937,3.4563,3.4847,3.519,3.5458,3.5504,3.5504,3.5504,3.5504,3.5504,3.5504,3.5504,3.5504,3.5504,3.5504,3.5504,3.5504,3.51,3.4772,3.4503,3.4099,3.3784,3.3499,3.3499,3.3499,3.3514,3.3919,3.4084,3.4113,3.4502,3.4666,3.4666,3.4666,3.4666,3.4607,3.4098,3.4099,3.4337,3.4337,3.4337,3.4337,3.4337,3.4337,3.4337,3.4337,3.4337,3.4218,3.3649,3.3499,3.3365,3.2811,3.2377,3.2079,3.2079,3.178,3.1511,3.1511,3.1511,3.1394,3.1058,3.0614,2.9919,2.8668,2.8035,2.7587,2.7246,2.6286,2.5523,2.5281,2.4519,2.3778,2.3158,2.3409,2.3487,2.3133,2.3938,2.4327,2.4017,2.4808,2.5272,2.5272,2.5598,2.6012,2.6482,2.6485,2.7059,2.8257,2.8536,2.8972,2.9535,2.9176,2.8484,2.7249,0.0,0.0,2.7224,2.8485,2.967,2.9856,3.048,3.1376,3.2638,3.2402,3.245,3.3974,3.3441,0.0,3.4069,3.4379,3.4563,3.4742,3.519,3.525,3.4578,3.4937,3.522,3.522,3.5385,3.5504,3.5504,3.5504,3.5504,3.5504,3.5504,3.5504,3.5504,3.5504,3.5504,3.5504,3.5011,3.4772,3.4772,3.4277,3.4053,3.4053,3.4053,3.4053,3.4083,3.4563,3.4772,3.4817,3.5295,3.5504,3.5504,3.5504,3.5504,3.5385,3.4412,3.4053,3.4053,3.4053,3.4053,3.4053,3.4053,3.4053,3.4053,3.4053,3.4053,3.4008,3.3844,3.3784,3.3724,3.3544,3.314,3.2781,3.2781,3.2407,3.1989,3.1809,3.178,3.172,3.154,3.1029,3.0359,2.9504,2.8844,2.8263,2.7769,2.6708,2.5966,2.5966,2.4817,2.3841,2.3384,2.3587,2.3574,2.3145,2.4014,2.4478,2.4243,2.5084,2.5661,2.5841,2.6273,2.6765,2.7351,2.7587,2.8133,2.9002,2.9002,2.9212,2.9602,2.8944,2.8862,0.0,0.0,2.7055,2.8553,3.0033,3.1319,3.2039,3.2763,3.3525,3.4269,3.389,3.3483,3.3607,3.3547,3.3481,3.3517,3.4084,3.4727,3.5385,3.5489,3.525,3.4578,3.4518,3.4518,0.0,3.5115,3.5504,3.5504,3.5504,3.5504,3.5504,3.5504,3.5504,3.5504,3.5504,3.5504,3.5504,3.5489,3.5474,3.5474,3.5459,3.5444,3.5444,3.5444,3.5444,3.5444,3.5474,3.5474,3.5474,3.5489,3.5504,3.5504,3.5504,3.5504,3.5504,3.5459,3.5444,3.5444,3.5444,3.5444,3.5444,3.5444,3.5444,3.5444,3.5444,3.5444,3.531,3.4652,3.4458,3.4323,3.3664,3.3484,3.3469,3.3469,3.344,3.326,3.2602,3.2467,3.2288,3.163,3.1467,3.1205,3.0389,3.0238,2.9644,2.7953,2.7232,2.6862,2.6862,2.5185,2.3991,2.3966,2.3474,2.312,2.3108,2.3662,2.4243,2.4741,2.5281,2.5866,2.6449,2.6487,2.6516,2.6538,2.73,2.8133,2.9002,2.9002,2.9736,3.1073,2.8798,2.8542,0.0,0.0,2.9313,3.0821,3.23,3.3451,3.3704,3.4336,3.4934,3.5188,3.4341,3.3707,3.4184,3.3477,3.314,3.4025,3.4338,3.4727,3.5415,3.5504,3.5085,3.3979,3.4622,0.0,0.0,0.0,0.0,3.5474,3.5504,3.5504,3.5504,3.5504,3.5504,3.5504,3.5504,3.5504,3.5504,3.5504,3.5504,3.5504,3.5504,3.5504,3.5504,3.5504,3.5504,3.5504,3.5504,3.5504,3.5504,3.5504,3.5504,3.5504,3.5504,3.5504,3.5504,3.5504,3.5504,3.5504,3.5504,3.5504,3.5504,3.5504,3.5504,3.5504,3.5504,3.5504,3.5459,3.522,3.516,3.5115,3.4891,3.4503,3.4158,3.4158,3.3829,3.344,3.3215,3.3155,3.3095,3.2871,3.2467,3.1886,3.1028,3.0558,2.9904,2.8748,2.7108,2.5921,2.5547,2.4934,2.4528,2.4528,2.4352,2.4224,2.4224,2.4745,2.5134,2.5322,2.5879,2.6528,2.7267,2.73,2.7571,2.8149,2.8411,2.8716,2.9002,2.9002,2.9556,3.0572,2.9789,2.9694,2.8967,2.9922,3.092,3.2655,3.3806,3.4567,3.4827,3.5256,3.56,3.56,3.4347,3.3367,3.3819,3.2739,3.2228,3.3575,3.3994,3.4458,3.537,3.5504,3.51,3.3994,3.4622,0.0,0.0,0.0,0.0,3.5444,3.5504,3.5504,3.5504,3.5504,3.5504,3.5504,3.5504,3.5504,3.5504,3.5504,3.5504,3.5504,3.5504,3.5504,3.5504,3.5504,3.5504,3.5504,3.5504,3.5504,3.5504,3.5504,3.5504,3.5504,3.5504,3.5504,3.5534,3.5774,3.5863,3.5818,3.5594,3.5504,3.5504,3.5504,3.5504,3.5504,3.5504,3.5504,3.5504,3.5504,3.5504,3.5504,3.5504,3.5175,3.4862,3.4862,3.4517,3.4143,3.3919,3.3859,3.3799,3.3544,3.3155,3.2675,3.2127,3.1234,3.0325,2.9479,2.7916,2.658,2.5918,2.5389,2.508,2.508,2.4917,2.4804,2.4804,2.5118,2.5398,2.5586,2.5954,2.6515,2.7233,2.728,2.767,2.8524,2.8844,2.9144,2.9457,2.9144,2.9286,2.9827,2.943,2.9384,2.9845,3.0818,3.1894,3.4077,3.4584,3.4742,3.5492,3.5616,3.5571,3.5515,3.3952,3.2576,0.0,0.0,3.0926,3.2243,3.3036,3.3963,3.531,3.5504,3.525,0.0,0.0,0.0,0.0,0.0,0.0,3.5504,0.0,3.5504,3.5504,3.5504,3.5504,3.5504,3.5504,3.5504,3.5504,3.5504,3.5504,3.5504,3.5504,3.5504,3.5504,3.5504,3.5504,3.5504,3.5504,3.5504,3.5504,3.5504,3.5534,3.5549,3.5549,3.5579,3.5669,3.6314,3.6553,3.6464,3.5818,3.5609,3.5609,3.5609,3.5609,3.5609,3.5609,3.5609,3.5594,3.5564,3.5549,3.5549,3.5519,3.5504,3.5504,3.5504,3.5504,3.5325,3.4682,3.4548,3.4353,3.3724,3.3559,3.3529,3.3515,3.2291,3.1048,3.0282,2.9543,2.8712,2.7819,2.6523,2.5703,2.5703,2.5213,2.4892,2.4892,2.4892,2.5093,2.5611,2.5653,2.5938,2.6598,2.6589,2.6973,2.7871,2.8668,2.9489,3.0359,2.9535,2.9142,2.9153,2.8068,2.7967,3.1992,3.3102,3.4077,3.5785,3.5757,3.5526,3.631,3.6033,3.5318,3.4328,3.3289,3.2148,0.0,0.0,0.0,3.1615,3.2736,0.0,3.531,3.5504,0.0,0.0,0.0,3.579,3.5295,3.6103,0.0,0.0,3.5789,3.5504,3.5504,3.5504,3.5504,3.5504,3.5504,3.5504,3.5504,3.5504,3.5504,3.5504,3.5504,3.5504,3.5504,3.5504,3.5504,3.5504,3.5504,3.5504,3.5504,3.5504,3.5789,3.6254,3.6254,3.6522,3.6941,3.712,3.718,3.715,3.6969,3.6926,3.6926,3.6926,3.6926,3.6926,3.6926,3.6926,3.6821,3.6372,3.6254,3.6118,3.5624,3.5504,3.5504,3.5504,3.5504,3.5459,3.528,3.525,3.519,3.5026,3.4592,3.4084,3.3589,3.3166,3.2848,3.2647,3.097,2.9255,2.7888,2.739,2.715,2.715,2.6506,2.6067,2.6067,2.6067,2.6118,2.6273,2.6273,2.689,2.8298,2.7736,2.8379,3.0494,3.0163,3.0374,3.119,3.097,3.1116,3.16,3.1318,3.1198,3.3852,3.4928,3.5785,3.6987,3.6705,3.6146,3.6248,3.5673,3.4639,3.3011,3.2148,0.0,0.0,0.0,0.0,0.0,0.0,0.0,3.528,3.5504,3.5474,0.0,3.6044,0.0,3.6326,3.6969,3.715,0.0,3.6148,3.5804,3.5519,3.5504,3.5504,3.5504,3.5504,3.5504,3.5504,3.5504,3.5504,3.5504,3.5504,3.5504,3.5504,3.5504,3.5504,3.5519,0.0,3.5938,3.5953,3.6206,3.6567,3.6881,3.6881,3.7105,3.7449,3.7734,3.7838,3.7883,3.8182,3.827,3.818,3.7582,3.7387,3.7387,3.7387,3.7387,3.7345,3.6985,3.6881,3.6746,3.6103,3.5938,3.5863,3.5579,3.5504,3.5504,3.5504,3.5504,3.5504,3.5504,3.519,3.4832,3.4442,3.4128,3.3809,3.3434,3.2326,3.0938,2.9273,2.7952,2.7162,2.7162,2.6765,2.6641,2.7007,2.6696,2.6658,2.7007,2.6696,2.6922,2.7855,2.7434,2.8002,2.9812,3.0036,3.0363,3.0747,3.1052,3.1168,3.1146,3.0977,3.085,3.5391,3.6332,3.7105,3.7736,3.7359,3.6569,3.5689,3.4907,3.3752,3.1572,0.0,0.0,2.7692,0.0,2.8906,3.0283,0.0,3.32,3.522,3.5579,3.5818,3.6314,3.6523,3.6791,3.724,3.7342,3.715,3.6553,3.6508,3.6207,3.5549,3.5504,3.5504,3.5504,3.5504,3.5504,3.5504,3.5504,3.5504,3.5504,3.5504,3.5504,3.5504,3.5594,3.5639,3.5669,0.0,0.0,3.6673,3.718,3.7464,3.7522,3.7522,3.7582,3.7749,3.8317,3.8527,3.8616,3.9197,3.9406,3.9212,3.803,3.7656,3.7656,3.7656,3.7656,3.7642,3.7569,3.7522,3.7389,3.6776,3.6628,3.6462,3.5893,3.5759,3.5759,3.5759,3.5699,3.5609,3.5519,3.5504,3.5504,3.5504,3.5011,3.4385,3.3614,3.3489,3.289,3.1324,2.8739,2.7015,2.6907,2.6782,2.6981,2.7689,2.7225,2.7191,2.7894,2.7399,2.7152,2.7242,2.7139,2.7466,2.8262,2.9471,3.0041,2.9909,3.0499,3.0399,2.9676,2.9387,2.9312,3.6344,3.7127,3.7736,3.786,3.7359,3.6448,3.5148,3.4209,0.0,0.0,0.0,2.8188,2.6309,2.6954,0.0,3.0193,0.0,0.0,0.0,0.0,3.6148,0.0,0.0,0.0,0.0,0.0,0.0,0.0,0.0,3.6207,3.5549,3.5504,3.5504,3.5504,3.5504,3.5504,3.5504,3.5504,3.5504,3.5504,3.5504,3.5504,3.5534,3.6073,3.6329,3.6374,3.6985,0.0,3.7255,3.736,3.7734,3.8245,3.8245,3.8571,3.9077,3.9182,3.9227,3.9242,3.9361,3.9406,3.9361,3.9137,3.9047,3.9047,3.9047,3.9047,3.8928,3.8377,3.8245,3.8063,3.7419,3.724,3.7225,3.7105,3.7075,3.7075,3.7075,3.6671,3.6148,3.5609,3.5504,3.5504,3.5504,3.54,3.5276,3.5115,3.4038,3.3146,3.2819,3.1188,2.9753,2.897,2.825,2.7875,2.8024,2.861,2.9039,2.9179,2.9838,3.0527,3.1184,3.0563,3.0563,3.1314,3.0889,3.0596,3.0461,3.0588,3.0839,3.1229,3.1167,3.1427,3.7161,3.7905,3.8464,3.8464,3.763,3.6234,3.4102,0.0,0.0,0.0,0.0,2.7152,2.4968,0.0,0.0,0.0,0.0,0.0,0.0,0.0,0.0,0.0,0.0,0.0,0.0,0.0,0.0,0.0,0.0,3.6207,3.5549,3.5504,3.5504,3.5504,3.5504,3.5669,3.6013,3.5669,3.5833,3.6475,3.6163,3.6178,3.6507,3.6821,3.6971,3.7,3.7644,0.0,3.7943,3.83,3.8629,3.8931,3.8931,3.9107,3.9406,3.9406,3.9406,3.9406,3.9406,3.9406,3.9406,3.9406,3.9406,3.9406,3.9406,3.9406,3.9331,3.902,3.8931,3.8781,3.8093,3.7913,3.7838,3.7477,3.7387,3.7387,3.7387,3.718,3.6776,3.6133,3.6013,3.5908,3.5564,3.5504,3.5504,3.5504,3.4866,3.4206,3.3681,3.2941,3.1895,3.0392,2.9381,2.9019,2.9469,2.9054,2.8965,2.9416,2.9469,2.9661,3.0046,2.9713,2.9891,3.073,3.0633,3.0813,3.1233,3.1499,3.1557,3.1397,3.1397,3.1305,3.7736,3.8548,3.9169,3.8848,3.7765,3.6027,3.3018,3.1631,0.0,0.0,0.0,2.6224,2.4198,0.0,0.0,0.0,0.0,0.0,0.0,0.0,0.0,0.0,0.0,0.0,0.0,0.0,0.0,0.0,0.0,0.0,3.5534,3.5504,3.5504,3.5504,3.5504,3.5818,3.6493,3.5968,3.6282,3.7404,3.6911,3.6941,3.7387,3.7554,3.7614,3.7659,3.8317,0.0,0.0,3.9167,3.9406,3.9406,3.9406,3.9406,3.9406,3.9406,3.9406,3.9406,3.9406,3.9406,3.9406,3.9406,3.9406,3.9406,3.9406,3.9406,3.9406,3.9406,3.9406,3.9272,3.8751,3.8601,3.8482,3.7958,3.7838,3.7776,3.7659,3.7614,3.7434,3.6806,3.6598,3.6374,3.5983,3.5684,3.5549,3.5684,3.5594,3.5213,3.4411,3.4312,3.3734,3.2134,3.089,3.0441,3.1133,3.0069,2.9656,3.0336,2.9732,2.9364,2.9364,2.9179,2.931,2.9856,3.0332,3.0846,3.1359,3.1798,3.1609,3.0895,3.0895,3.0565,3.7877,3.8933,3.9677,3.8345,3.741,3.588,3.2321,0.0,0.0,0.0,2.54,2.5209,2.4618,0.0,0.0,0.0,0.0,0.0,0.0,0.0,0.0,0.0,0.0,0.0,0.0,0.0,0.0,0.0,0.0,0.0,3.5504,3.5504,3.5504,3.5504,3.5504,3.5818,3.6493,3.6449,3.6731,3.7387,3.7327,3.736,3.7417,3.8018,3.8302,3.8365,3.9017,0.0,0.0,3.9376,3.9406,3.9406,3.9406,3.9406,3.9406,3.9406,3.9406,3.9406,3.9406,3.9406,3.9406,3.9406,3.9406,3.9406,3.9406,3.9406,3.9406,3.9406,3.9406,3.9391,3.9316,3.9316,3.9287,3.9227,3.9212,3.9047,3.8437,3.8302,3.8108,3.7449,3.6866,3.6641,3.715,3.6282,3.5714,3.6329,3.5893,3.5472,3.5375,3.5359,3.5298,3.5099,3.3428,3.2353,3.2441,3.3055,3.35,3.3568,3.35,3.3465,3.3465,3.2653,3.1834,3.1059,3.1093,3.0755,2.998,3.003,2.9998,2.9934,2.9934,3.0153,3.7787,3.8983,3.9745,3.8278,3.698,3.5065,3.1205,0.0,2.8171,2.5378,2.4749,2.467,2.4515,2.4538,0.0,0.0,0.0,0.0,0.0,0.0,0.0,0.0,0.0,0.0,0.0,0.0,0.0,0.0,0.0,0.0,3.5504,3.5504,3.5684,3.6088,3.6088,3.6613,3.7631,3.724,3.7569,3.8599,3.8197,3.8212,3.8614,3.8886,3.9005,3.9017,3.9287,0.0,0.0,3.9406,3.9406,3.9406,3.9406,3.9406,3.9406,3.9406,3.9406,3.9406,3.9406,3.9406,3.9406,3.9406,3.9406,3.9406,3.9406,3.9406,3.9406,3.9406,3.9406,3.9406,3.9406,3.9406,3.9406,3.9406,3.9406,3.9331,3.9065,3.9005,3.8811,3.8123,3.7808,3.7584,3.7434,3.6686,3.6312,3.6941,3.6163,3.5654,3.6043,3.5744,3.5504,3.5504,3.4276,3.3432,3.3432,3.3276,3.3154,3.3154,3.3154,3.3154,3.3154,3.2267,3.1852,3.2051,3.0927,3.0733,3.1476,3.0927,3.0639,3.0652,3.097,3.0944,3.7014,3.8311,3.9153,3.7889,3.6273,3.4097,0.0,0.0,2.7309,2.5095,2.4511,2.44,2.44,2.4505,2.4829,0.0,0.0,0.0,0.0,0.0,0.0,0.0,0.0,0.0,0.0,0.0,0.0,0.0,0.0,0.0,0.0,3.5804,3.6013,3.6493,3.6673,3.7285,3.8395,3.7928,3.8272,3.9391,3.8931,3.8945,3.9406,3.9406,3.9406,3.9406,0.0,0.0,0.0,3.9406,3.9406,3.9406,3.9406,3.9406,3.9406,3.9406,3.9406,3.9406,3.9406,3.9406,3.9406,3.9406,3.9406,3.9406,3.9406,3.9406,3.9406,3.9406,3.9406,3.9406,3.9406,3.9406,3.9406,3.9406,3.9406,3.9406,3.9406,3.9406,3.9257,3.8796,3.8544,3.8302,3.803,3.7315,3.6971,3.7599,3.6761,3.6237,3.6701,3.6357,3.6073,3.6073,3.5163,3.4531,3.444,3.3839,3.3446,3.3446,3.3171,3.3013,3.3013,3.2105,3.1924,3.2575,3.1304,3.1267,3.2593,3.182,3.1431,3.1444,3.1693,3.1548,3.5414,3.6761,3.7736,3.7004,3.5201,3.3048,0.0,2.8791,2.6905,2.548,2.4766,2.44,2.44,2.4505,2.4829,2.5483,0.0,0.0,0.0,0.0,0.0,0.0,0.0,0.0,0.0,0.0,0.0,0.0,0.0,0.0,0.0,3.6493,3.6493,3.6508,3.7075,3.7719,3.8395,3.8395,3.8736,3.9406,3.9391,3.9391,3.9406,3.9406,3.9406,0.0,0.0,0.0,0.0,3.9406,3.9406,3.9406,3.9406,3.9406,3.9406,3.9406,3.9406,3.9406,3.9406,3.9406,3.9406,3.9406,3.9406,3.9406,3.9406,3.9406,3.9406,3.9406,3.9406,3.9406,3.9406,3.9406,3.9406,3.9406,3.9406,3.9406,3.9406,3.9406,3.9406,3.9391,3.8856,3.8601,3.9272,3.827,3.7629,3.8305,3.7808,3.7372,3.7404,3.7372,3.7389,3.7389,3.6476,3.5755,3.5511,3.5488,3.5472,3.5472,3.4543,3.3993,3.3993,3.3084,3.2575,3.2593,3.2575,3.2575,3.2593,3.2185,3.1986,3.1994,3.16,3.1695,3.3897,3.5188,3.6033,3.4793,3.3662,3.2287,3.0129,2.8152,2.6556,2.5889,2.4742,2.4085,2.4806,2.4379,2.4597,2.6629,2.733,0.0,0.0,0.0,0.0,0.0,0.0,0.0,0.0,0.0,0.0,0.0,0.0,0.0,0.0,3.7332,3.7811,3.7811,3.7973,3.8407,3.9095,3.9077,3.9182,3.9406,3.9406,3.9406,3.9406,3.9406,0.0,0.0,0.0,0.0,0.0,3.9406,3.9406,3.9406,3.9406,3.9406,3.9406,3.9406,3.9406,3.9406,3.9406,3.9406,3.9406,3.9406,3.9406,3.9406,3.9406,3.9406,3.9406,3.9406,3.9406,3.9406,3.9406,3.9406,3.9406,3.9406,3.9406,3.9406,3.9406,3.9406,3.9406,3.9406,3.9227,3.9152,3.9361,3.8676,3.8302,3.8973,3.812,3.7569,3.8018,3.7689,3.7387,3.7387,3.7114,3.6882,3.6802,3.5108,3.4379,3.5117,3.4157,3.3928,3.4643,3.4125,3.4185,3.4921,3.3572,3.2865,3.2865,3.2012,3.1784,3.2133,3.2008,3.2252,0.0,3.3429,3.419,3.3548,3.2374,3.1002,2.9632,2.7482,2.5774,2.5701,2.4582,2.3869,2.4742,2.4393,2.4612,2.6524,0.0,0.0,0.0,0.0,0.0,0.0,0.0,0.0,0.0,0.0,0.0,0.0,0.0,0.0,0.0,3.7975,3.8529,3.8766,3.8781,3.899,3.9406,3.9406,3.9406,3.9406,3.9406,3.9406,3.9406,3.9406,0.0,0.0,0.0,0.0,0.0,3.9406,3.9406,3.9406,3.9406,3.9406,3.9406,3.9406,3.9406,3.9406,3.9406,3.9406,3.9406,3.9406,3.9406,3.9406,3.9406,3.9406,3.9406,3.9406,3.9406,3.9406,3.9406,3.9406,3.9406,3.9406,3.9406,3.9406,3.9406,3.9406,3.9406,3.9406,3.9406,3.9406,3.9406,3.9047,3.8931,3.9331,3.8688,3.8317,3.8721,3.8404,3.815,3.815,3.7804,3.7701,3.8115,3.6162,3.5025,3.532,3.4703,3.445,3.4735,3.4502,3.4678,3.5356,3.4123,3.3486,3.3486,3.2676,3.2369,3.2541,3.2541,3.2729,0.0,3.1505,3.2226,3.2848,3.1197,2.9362,2.9222,2.6867,0.0,2.5181,2.44,2.3835,2.4421,2.4565,2.4889,2.5737,0.0,0.0,0.0,0.0,0.0,0.0,0.0,0.0,0.0,0.0,0.0,0.0,0.0,0.0,0.0,3.8454,3.8751,3.9376,3.9406,3.9406,3.9406,3.9406,3.9406,3.9406,3.9406,3.9406,3.9406,3.9406,0.0,0.0,0.0,0.0,0.0,3.9406,3.9406,3.9406,3.9406,3.9406,3.9406,3.9406,3.9406,3.9406,3.9406,3.9406,3.9406,3.9406,3.9406,3.9406,3.9406,3.9406,3.9406,3.9406,3.9406,3.9406,3.9406,3.9406,3.9406,3.9406,3.9406,3.9406,3.9406,3.9406,3.9406,3.9406,3.9406,3.9406,3.9406,3.9406,3.9406,3.9406,3.9406,3.9406,3.9406,3.9406,3.9406,3.9406,3.8509,3.8327,3.9319,3.8072,3.6895,3.6032,3.5834,3.5345,3.4419,3.4346,3.4374,3.4431,3.4374,3.4298,3.4222,3.3834,3.3457,3.3102,3.3102,3.3102,2.8297,0.0,2.966,2.9236,2.8771,2.8379,0.0,2.6935,2.5821,2.5808,0.0,2.4559,2.5719,2.5192,0.0,0.0,0.0,0.0,0.0,0.0,0.0,0.0,0.0,0.0,0.0,0.0,0.0,0.0,0.0,0.0,0.0,3.8901,3.9227,3.9406,3.9406,3.9406,3.9406,3.9406,3.9406,3.9406,3.9406,3.9406,3.9406,3.9406,0.0,0.0,0.0,0.0,3.9406,3.9406,3.9406,3.9406,3.9406,3.9406,3.9406,3.9406,3.9406,3.9406,3.9406,3.9406,3.9406,3.9406,3.9406,3.9406,3.9406,3.9406,3.9406,3.9406,3.9406,3.9406,3.9406,3.9406,3.9406,3.9406,3.9406,3.9406,3.9406,3.9406,3.9406,3.9406,3.9406,3.9406,3.9406,3.9406,3.9406,3.9406,3.9406,3.9406,3.9406,3.9406,3.9406,3.9406,3.9159,3.9123,3.9388,3.7234,3.6131,3.6713,3.5197,3.4561,3.5115,3.4805,3.4975,3.5725,3.4995,3.4206,3.3378,3.3301,3.3186,3.3102,3.3102,3.3102,2.7089,2.8138,2.8993,2.8881,2.8493,2.8123,2.8016,2.6825,0.0,0.0,0.0,0.0,0.0,0.0,0.0,0.0,0.0,0.0,0.0,0.0,0.0,0.0,0.0,0.0,0.0,0.0,0.0,0.0,0.0,0.0,0.0,3.9197,3.9406,3.9406,3.9406,3.9406,3.9406,3.9406,3.9406,3.9406,3.9406,3.9406,3.9406,3.9406,3.9406,0.0,0.0,0.0,3.9406,3.9406,3.9406,3.9406,3.9406,3.9406,3.9406,3.9406,3.9406,3.9406,3.9406,3.9406,3.9406,3.9406,3.9406,3.9406,3.9406,3.9406,3.9406,3.9406,3.9406,3.9406,3.9406,3.9406,3.9406,3.9406,3.9406,3.9406,3.9406,3.9406,3.9406,3.9406,3.9406,3.9406,3.9406,3.9406,3.9406,3.9406,3.9406,3.9406,3.9406,3.9406,3.9406,3.9406,3.9406,3.9406,3.9406,3.8076,3.7269,3.7362,3.6278,3.567,3.5761,3.5525,3.544,3.5507,3.4498,3.367,3.3102,3.3102,3.3102,3.3102,3.3102,3.3102,2.664,2.7985,2.9221,2.9507,2.8855,2.8111,2.7995,0.0,0.0,0.0,0.0,0.0,0.0,0.0,0.0,0.0,0.0,0.0,0.0,0.0,0.0,0.0,0.0,0.0,0.0,0.0,0.0,0.0,0.0,0.0,0.0,3.9406,3.9406,3.9406,3.9406,3.9406,3.9406,3.9406,3.9406,3.9406,3.9406,3.9406,3.9406,3.9406,3.9406,0.0,0.0,0.0,3.9406,3.9406,3.9406,3.9406,3.9406,3.9406,3.9406,3.9406,3.9406,3.9406,3.9406,3.9406,3.9406,3.9406,3.9406,3.9406,3.9406,3.9406,3.9406,3.9406,3.9406,3.9406,3.9406,3.9406,3.9406,3.9406,3.9406,3.9406,3.9406,3.9406,3.9406,3.9406,3.9406,3.9406,3.9406,3.9406,3.9406,3.9406,3.9406,3.9406,3.9406,3.9406,3.9406,3.9406,3.9406,3.9406,3.9406,3.9406,3.8998,3.8088,3.7885,3.7324,3.6237,3.6198,3.5714,3.4725,3.3818,3.3261,3.3102,3.3102,3.3102,3.3102,3.3102,3.3102,2.7266,2.8763,2.9499,2.7681,2.7543,2.771,2.7061,0.0,0.0,0.0,0.0,0.0,0.0,0.0,0.0,0.0,0.0,0.0,0.0,0.0,0.0,0.0,0.0,0.0,0.0,0.0,0.0,0.0,0.0,0.0,0.0,3.9406,3.9406,3.9406,3.9406,3.9406,3.9406,3.9406,3.9406,3.9406,3.9406,3.9406,3.9406,3.9406,3.9406,0.0,0.0,3.9406,3.9406,3.9406,3.9406,3.9406,3.9406,3.9406,3.9406,3.9406,3.9406,3.9406,3.9406,3.9406,3.9406,3.9406,3.9406,3.9406,3.9406,3.9406,3.9406,3.9406,3.9406,3.9406,3.9406,3.9406,3.9406,3.9406,3.9406,3.9406,3.9406,3.9406,3.9406,3.9406,3.9406,3.9406,3.9406,3.9406,3.9406,3.9406,3.9406,3.9406,3.9406,3.9406,3.9406,3.9406,3.9406,3.9406,3.9406,3.9406,3.9319,3.9159,3.8308,3.7324,3.6237,3.6198,3.5714,3.4725,3.4553,3.4016,3.3102,3.3102,3.3102,3.3102,3.3102,3.3102,2.6209,2.7427,2.8213,2.8002,2.8789,2.9274,2.7932,2.7618,0.0,0.0,0.0,0.0,0.0,0.0,0.0,0.0,0.0,0.0,0.0,0.0,0.0,0.0,0.0,0.0,0.0,0.0,0.0,0.0,0.0,0.0,0.0,0.0,3.9406,3.9406,3.9406,3.9406,3.9406,3.9406,3.9406,3.9406,3.9406,3.9406,3.9406,3.9406,3.9406,3.9406,0.0,3.9406,3.9406,3.9406,3.9406,3.9406,3.9406,3.9406,3.9406,3.9406,3.9406,3.9406,3.9406,3.9406,3.9406,3.9406,3.9406,3.9406,3.9406,3.9406,3.9406,3.9406,3.9406,3.9406,3.9406,3.9406,3.9406,3.9406,3.9406,3.9406,3.9406,3.9406,3.9406,3.9406,3.9406,3.9406,3.9406,3.9406,3.9406,3.9406,3.9406,3.9406,3.9406,3.9406,3.9406,3.9406,3.9406,3.9406,3.9406,3.9406,3.9406,3.9406,3.8943,3.8438,3.7946,3.7367,3.6847,3.6391,3.5264,3.447,3.3953,3.3377,3.3102,3.3102,3.3102,3.3102,2.5668,2.6531,2.7334,2.8865,0.0,3.0169,2.9261,2.9059,0.0,0.0,0.0,0.0,0.0,0.0,0.0,0.0,0.0,0.0,0.0,0.0,0.0,0.0,0.0,0.0,0.0,0.0,0.0,0.0,0.0,0.0,0.0,0.0,3.9406,3.9406,3.9406,3.9406,3.9406,3.9406,3.9406,3.9406,3.9406,3.9406,3.9406,3.9406,3.9406,3.9406,3.9406,3.9406,3.9406,3.9406,3.9406,3.9406,3.9406,3.9406,3.9406,3.9406,3.9406,3.9406,3.9406,3.9406,3.9406,3.9406,3.9406,3.9406,3.9406,3.9406,3.9436,3.9586,3.9631,3.9631,3.9631,3.9631,3.9631,3.9631,3.9511,3.9406,3.9406,3.9406,3.9406,3.9406,3.9526,3.9631,3.9631,3.975,3.9873,3.9873,3.9873,3.9873,3.9873,3.9873,3.9873,3.9873,3.9873,3.9873,3.9873,3.9873,3.9689,3.9287,3.9354,3.9406,3.9406,3.8601,3.805,3.7791,3.6233,3.5183,3.4705,3.3869,3.3356,3.3102,3.3228,3.3291,2.7055,2.7689,2.8094,2.9642,2.9024,0.0,3.0545,3.0115,0.0,3.0019,0.0,0.0,0.0,0.0,0.0,0.0,0.0,0.0,0.0,0.0,0.0,0.0,0.0,0.0,0.0,0.0,0.0,0.0,0.0,0.0,0.0,0.0,0.0,3.9406,3.9406,3.9406,3.9406,3.9406,3.9406,3.9406,3.9406,3.9406,3.9406,3.9406,3.9406,3.9406,3.9406,3.9406,3.9406,3.9406,3.9406,3.9406,3.9406,3.9406,3.9406,3.9406,3.9406,3.9406,3.9406,3.9406,3.9406,3.9406,3.9406,3.9406,3.9406,3.9406,3.9526,4.0157,4.0337,4.0337,4.0337,4.0337,4.0337,4.0337,3.984,3.9406,3.9406,3.9406,3.9406,3.9406,3.9885,4.0337,4.0337,4.0831,4.1254,4.1254,4.1254,4.1254,4.1254,4.1254,4.1254,4.1254,4.1254,4.1254,4.1254,4.1254,4.0573,3.8943,3.9195,3.9406,3.9406,3.9319,3.8819,3.781,3.7658,3.6627,3.4705,3.4622,3.4079,3.3102,3.3608,3.3847,2.5397,2.642,2.7486,2.9025,2.935,0.0,0.0,3.124,3.1814,3.1725,0.0,0.0,0.0,0.0,0.0,0.0,0.0,0.0,0.0,0.0,0.0,0.0,0.0,0.0,0.0,0.0,0.0,0.0,0.0,0.0,0.0,0.0,0.0,3.9406,3.9406,3.9406,3.9406,3.9406,3.9406,3.9406,3.9406,3.9406,3.9406,3.9406,3.9406,3.9406,3.9406,3.9406,3.9406,3.9406,3.9406,3.9406,3.9406,3.9406,3.9406,3.9406,3.9406,3.9406,3.9406,3.9406,3.9406,3.9406,3.9406,3.9481,3.9885,4.0004,4.0172,4.0831,4.1328,4.1553,4.1134,4.1029,4.1029,4.1029,4.0834,4.0531,4.0113,4.0004,4.0004,4.0004,4.0232,4.0531,4.0954,4.1239,4.1403,4.1403,4.1403,4.1403,4.1403,4.1403,4.1403,4.1403,4.1403,4.1403,4.1403,4.1403,4.1132,4.0469,4.0163,3.9553,3.8449,3.905,3.921,3.88,3.8144,3.7415,3.6627,3.5668,3.4986,3.4589,3.4467,3.4389,2.4703,2.5575,2.6784,2.8553,0.0,0.0,3.0971,3.2529,3.3848,3.4088,0.0,0.0,0.0,0.0,0.0,0.0,0.0,0.0,0.0,0.0,0.0,0.0,0.0,0.0,0.0,0.0,0.0,0.0,0.0,0.0,0.0,0.0,0.0,0.0,3.8763,3.8868,3.9095,3.9077,3.9182,3.9406,3.9406,3.9406,3.9406,3.9406,3.9406,3.9406,3.9406,3.9406,3.9406,3.9406,3.9406,3.9406,3.9406,3.9406,3.9406,3.9406,3.9406,3.9406,3.9406,3.9406,3.9406,3.9406,3.9406,3.9526,4.0202,4.0397,4.0576,4.1463,4.2051,4.2351,4.2077,4.1867,4.1718,4.1718,4.1553,4.1268,4.0801,4.0711,4.0711,4.0711,4.0894,4.1179,4.1628,4.1882,4.1998,4.1998,4.1998,4.1998,4.1998,4.1998,4.1998,4.1998,4.1998,4.1998,4.1998,4.1998,4.1778,4.1231,4.1098,4.0307,3.8681,3.9117,3.9406,3.9406,3.869,3.8246,3.8112,3.7044,3.6294,3.5811,3.5622,3.5314,2.5584,2.5601,2.6159,0.0,0.0,0.0,3.2656,3.3987,3.5193,3.7287,0.0,0.0,0.0,0.0,0.0,0.0,0.0,0.0,0.0,0.0,0.0,0.0,0.0,0.0,0.0,0.0,0.0,0.0,0.0,0.0,0.0,0.0,0.0,0.0,3.7387,3.7719,3.8377,3.8409,3.8736,3.9391,3.9406,3.9406,3.9406,3.9406,3.9406,3.9406,3.9406,3.9406,3.9406,3.9406,3.9406,3.9406,3.9406,3.9406,3.9406,3.9406,3.9406,3.9406,3.9406,3.9406,3.9406,3.9406,3.9406,3.9526,4.0202,4.0412,4.0681,4.2017,4.241,4.2541,4.3145,4.2865,4.241,4.241,4.1897,4.1418,4.1403,4.1403,4.1403,4.1403,4.1961,4.2396,4.241,4.2895,4.329,4.329,4.329,4.329,4.329,4.329,4.329,4.329,4.329,4.329,4.329,4.329,4.2579,4.0932,4.1824,4.1792,4.0438,3.9765,3.9421,3.9421,3.9421,3.9228,3.8798,3.8813,3.801,3.6513,3.7052,3.6641,2.4821,2.5956,0.0,0.0,0.0,0.0,0.0,3.4784,0.0,0.0,0.0,0.0,0.0,0.0,0.0,0.0,0.0,0.0,0.0,0.0,0.0,0.0,0.0,0.0,0.0,0.0,0.0,0.0,0.0,0.0,0.0,0.0,0.0,0.0,3.7387,3.7509,3.7704,3.8153,3.8497,3.8691,3.9167,3.9406,3.9406,3.9406,3.9406,3.9406,3.9406,3.9406,3.9406,3.9406,3.9406,3.9406,3.9406,3.9406,3.9406,3.9406,3.9406,3.9406,3.9406,3.9406,3.9406,3.9406,3.9406,3.9616,4.0756,4.1104,4.1369,4.2671,4.3025,4.307,4.3265,4.3175,4.3025,4.3025,4.2876,4.2626,4.2216,4.2111,4.2111,4.2111,4.2261,4.2526,4.297,4.319,4.329,4.329,4.329,4.329,4.329,4.329,4.329,4.329,4.329,4.329,4.329,4.329,4.3081,4.2579,4.2459,4.1683,4.0047,4.0503,4.0801,4.0801,4.0801,4.0337,3.9348,3.9018,3.8201,3.6924,3.675,3.6468,2.5286,0.0,0.0,0.0,0.0,0.0,0.0,0.0,0.0,0.0,0.0,0.0,0.0,0.0,0.0,0.0,0.0,0.0,0.0,0.0,0.0,0.0,0.0,0.0,0.0,0.0,0.0,0.0,0.0,0.0,0.0,0.0,0.0,0.0,3.6656,3.6776,3.7045,3.7434,3.7781,3.8003,3.8404,3.8733,3.902,3.9272,3.9406,3.9406,3.9406,3.9406,3.9406,3.9406,3.9406,3.9406,3.9406,3.9406,3.9406,3.9406,3.9406,3.9406,3.9406,3.9406,3.9406,3.9406,3.9406,3.9601,4.0666,4.1014,4.1205,4.2252,4.2746,4.294,4.294,4.3115,4.329,4.329,4.329,4.3205,4.2836,4.2765,4.2765,4.2765,4.2765,4.2865,4.325,4.329,4.329,4.329,4.329,4.329,4.329,4.329,4.329,4.329,4.329,4.329,4.329,4.329,4.329,4.329,4.297,4.207,4.0579,4.109,4.1403,4.1403,4.1403,4.0942,4.0009,3.97,3.8857,3.7494,3.7213,3.6826,2.6395,0.0,0.0,0.0,0.0,0.0,0.0,0.0,0.0,0.0,0.0,0.0,0.0,0.0,0.0,0.0,0.0,0.0,0.0,0.0,0.0,0.0,0.0,0.0,0.0,0.0,0.0,0.0,0.0,0.0,0.0,0.0,0.0,3.5504,3.5504,3.5789,3.6404,3.6479,3.6793,0.0,3.7357,3.7749,3.8424,3.9017,3.9346,3.9406,3.9406,3.9406,3.9406,3.9406,3.9406,3.9406,3.9406,3.9406,3.9406,3.9406,3.9406,3.9406,3.9406,3.9406,3.9406,3.9406,3.9406,3.9526,4.0202,4.0397,4.0531,4.1209,4.1867,4.2396,4.2396,4.2851,4.329,4.329,4.329,4.329,4.329,4.329,4.329,4.329,4.329,4.329,4.329,4.329,4.329,4.329,4.329,4.329,4.329,4.329,4.329,4.329,4.329,4.329,4.329,4.329,4.329,4.329,4.329,4.284,4.1809,4.1642,4.1511,4.1415,4.1511,4.1243,4.0533,4.0533,3.9639,3.7962,3.7962,3.7392,0.0,2.7249,0.0,0.0,0.0,0.0,0.0,0.0,0.0,0.0,0.0,0.0,0.0,0.0,0.0,0.0,0.0,0.0,0.0,0.0,0.0,0.0,0.0,0.0,0.0,0.0,0.0,0.0,0.0,0.0,0.0,0.0,0.0,3.5504,3.5504,3.5579,3.5714,3.6254,3.6568,0.0,3.718,3.7749,3.8409,3.8542,3.8901,3.9406,3.9406,3.9406,3.9406,3.9406,3.9406,3.9406,3.9406,3.9406,3.9406,3.9406,3.9406,3.9406,3.9406,3.9406,3.9406,3.9406,3.9406,3.9526,4.0202,4.0397,4.0531,4.1209,4.1867,4.2396,4.2396,4.2851,4.329,4.329,4.329,4.329,4.329,4.329,4.329,4.329,4.329,4.329,4.329,4.329,4.329,4.329,4.329,4.329,4.329,4.329,4.329,4.329,4.329,4.329,4.329,4.329,4.329,4.329,4.329,4.319,4.2941,4.2907,4.2466,4.1567,4.2446,4.1953,4.0037,4.0037,3.8928,3.6779,3.6779,3.6628,0.0,0.0,0.0,0.0,0.0,0.0,0.0,0.0,0.0,0.0,0.0,0.0,0.0,0.0,0.0,0.0,0.0,0.0,0.0,0.0,0.0,0.0,0.0,0.0,0.0,0.0,0.0,0.0,0.0,0.0,0.0,3.5504,3.5504,3.5504,3.5504,3.5504,3.5504,3.5848,3.6013,3.6028,3.6342,3.7,3.7943,3.8586,3.908,3.9406,3.9406,3.9406,3.9406,3.9406,3.9406,3.9406,3.9406,3.9406,3.9406,3.9406,3.9406,3.9406,3.9406,3.9406,3.9406,3.9406,3.9406,3.9466,3.9828,3.9915,4.0068,4.0726,4.1403,4.2006,4.2321,4.2851,4.329,4.329,4.329,4.329,4.329,4.329,4.329,4.329,4.329,4.329,4.329,4.329,4.329,4.329,4.329,4.329,4.329,4.329,4.329,4.329,4.329,4.329,4.329,4.329,4.329,4.329,4.329,4.3056,4.2508,4.3016,4.3036,4.2432,4.3001,4.2447,4.0703,4.0181,3.8961,3.7196,3.6651,3.6405,0.0,0.0,3.1043,0.0,0.0,0.0,0.0,0.0,0.0,0.0,0.0,0.0,0.0,0.0,0.0,0.0,0.0,0.0,0.0,0.0,0.0,0.0,0.0,0.0,0.0,0.0,0.0,0.0,0.0,0.0,3.5504,3.5504,3.5504,3.5504,3.5504,3.5504,3.5504,3.5504,3.5504,3.5504,3.5624,3.6282,3.7432,3.8658,3.9287,3.9406,3.9406,3.9406,3.9406,3.9406,3.9406,3.9406,3.9406,3.9406,3.9406,3.9406,3.9406,3.9406,3.9406,3.9406,3.9406,3.9406,3.9406,3.9406,3.9406,3.9481,3.969,4.0247,4.0969,4.1688,4.2261,4.2851,4.329,4.329,4.329,4.329,4.329,4.329,4.329,4.329,4.329,4.329,4.329,4.329,4.329,4.329,4.329,4.329,4.329,4.329,4.329,4.329,4.329,4.329,4.329,4.329,4.329,4.329,4.329,4.288,4.1932,4.2785,4.329,4.329,4.3115,4.2447,4.1295,4.0145,3.8961,3.7779,3.6849,3.6405,0.0,0.0,3.1206,0.0,0.0,0.0,0.0,0.0,0.0,0.0,0.0,0.0,0.0,0.0,0.0,0.0,0.0,0.0,0.0,0.0,0.0,0.0,0.0,0.0,0.0,0.0,0.0,0.0,0.0,0.0,3.5504,3.5504,3.5504,3.5504,3.5504,3.5504,3.5504,3.5504,3.5504,3.5519,3.6088,3.6731,3.7434,3.8182,3.8856,3.9406,3.9406,3.9406,3.9406,3.9406,3.9406,3.9406,3.9406,3.9406,3.9406,3.9406,3.9406,3.9406,3.9406,3.9406,3.9406,3.9406,3.9406,3.9406,3.9406,3.9813,4.0292,4.0367,4.1298,4.2291,4.2381,4.2851,4.329,4.329,4.329,4.329,4.329,4.329,4.329,4.329,4.329,4.329,4.329,4.329,4.329,4.329,4.329,4.329,4.329,4.329,4.329,4.329,4.329,4.329,4.329,4.329,4.329,4.329,4.329,4.323,4.3076,4.323,4.329,4.329,4.233,4.1274,4.0124,3.8925,3.7746,3.6628,3.6476,3.6405,2.5898,2.8197,3.0766,0.0,0.0,0.0,0.0,0.0,0.0,0.0,0.0,0.0,0.0,0.0,0.0,0.0,0.0,0.0,0.0,0.0,0.0,0.0,0.0,0.0,0.0,0.0,0.0,0.0,0.0,3.5504,3.5504,3.5504,3.5504,3.5504,3.5504,3.5504,3.5504,3.5504,3.5504,3.5519,3.6194,3.6806,3.7417,3.8093,3.8766,3.9406,3.9406,3.9406,3.9406,3.9406,3.9406,3.9406,3.9406,3.9406,3.9406,3.9406,3.9406,3.9406,3.9406,3.9406,3.9406,3.9406,3.9406,3.9406,3.9406,3.9873,4.0472,4.0846,4.1658,4.2485,4.2821,4.31,4.329,4.329,4.329,4.329,4.329,4.329,4.329,4.329,4.329,4.329,4.329,4.329,4.329,4.329,4.329,4.329,4.329,4.329,4.329,4.329,4.329,4.329,4.329,4.329,4.329,4.329,4.329,4.329,4.329,4.329,4.3001,4.2351,4.2487,4.1988,4.0852,3.9675,3.8491,3.7345,3.6686,3.6405,0.0,0.0,2.9156,0.0,0.0,0.0,0.0,0.0,0.0,0.0,0.0,0.0,0.0,0.0,0.0,0.0,0.0,0.0,0.0,0.0,0.0,0.0,0.0,0.0,0.0,0.0,0.0,0.0,0.0,3.5504,3.5504,3.5504,3.5504,3.5504,3.5504,3.5504,3.5504,3.5504,3.5504,3.5504,3.6013,3.6641,3.7419,3.7913,3.8601,3.9406,3.9406,3.9406,3.9406,3.9406,3.9406,3.9406,3.9406,3.9406,3.9406,3.9406,3.9406,3.9406,3.9406,3.9406,3.9406,3.9406,3.9406,3.9436,3.9601,4.0127,4.0786,4.1463,4.2122,4.2735,4.319,4.329,4.329,4.329,4.329,4.329,4.329,4.329,4.329,4.329,4.329,4.329,4.329,4.329,4.329,4.329,4.329,4.329,4.329,4.329,4.329,4.329,4.329,4.329,4.329,4.329,4.329,4.329,4.329,4.329,4.329,4.329,4.29,4.205,4.288,4.2447,4.0718,3.985,3.8827,3.7655,3.6803,3.6405,0.0,2.5224,0.0,2.9725,0.0,0.0,0.0,0.0,0.0,0.0,0.0,0.0,0.0,0.0,0.0,0.0,0.0,0.0,0.0,0.0,0.0,0.0,0.0,0.0,0.0,0.0,0.0,0.0,0.0,3.5504,3.5504,3.5504,3.5504,3.5504,3.5504,3.5504,3.5504,3.5504,3.5504,3.5504,3.5549,3.6207,3.7387,3.7449,3.815,3.9406,3.9406,3.9406,3.9406,3.9406,3.9406,3.9406,3.9406,3.9406,3.9406,3.9406,3.9406,3.9406,3.9406,3.9406,3.9406,3.9406,3.9406,3.9511,4.0157,4.0834,4.1493,4.2171,4.2776,4.3245,4.329,4.329,4.329,4.329,4.329,4.329,4.329,4.329,4.329,4.329,4.329,4.329,4.329,4.329,4.329,4.329,4.329,4.329,4.329,4.329,4.329,4.329,4.329,4.329,4.329,4.329,4.329,4.329,4.329,4.329,4.329,4.329,4.327,4.321,4.327,4.1629,3.8289,3.8221,3.7609,3.6499,3.6428,3.6405,0.0,0.0,0.0,2.8607,0.0,0.0,0.0,0.0,0.0,0.0,0.0,0.0,0.0,0.0,0.0,0.0,0.0,0.0,0.0,0.0,0.0,0.0,0.0,0.0,0.0,0.0,0.0,0.0,0.0,0.0,3.5504,3.5504,3.5504,3.5504,3.5504,3.5504,3.5504,3.5504,3.5504,3.5504,3.5504,3.5968,3.6836,3.7225,3.7898,3.8781,3.9212,3.9406,3.9406,3.9406,3.9406,3.9406,3.9406,3.9406,3.9406,3.9406,3.9406,3.9406,3.9406,3.9406,3.9406,3.9406,3.9406,3.9526,4.0202,4.0879,4.1538,4.2216,4.2821,4.329,4.329,4.329,4.329,4.329,4.329,4.329,4.329,4.329,4.329,4.329,4.329,4.329,4.329,4.329,4.329,4.329,4.329,4.329,4.329,4.329,4.329,4.329,4.329,4.329,4.329,4.329,4.329,4.329,4.329,4.329,4.329,4.329,4.2603,4.1141,4.1844,4.1232,3.9249,3.9249,3.8257,3.6405,3.6405,3.6405,2.2029,0.0,0.0,0.0,0.0,0.0,0.0,0.0,0.0,0.0,0.0,0.0,0.0,0.0,0.0,0.0,0.0,0.0,0.0,0.0,0.0,0.0,0.0,0.0,0.0,0.0,0.0,0.0,0.0,0.0,3.5504,3.5504,3.5504,3.5504,3.5504,3.5504,3.5504,3.5504,3.5504,3.5504,3.5504,3.5848,3.6508,3.6911,3.7569,3.8424,3.8871,3.9182,3.9406,3.9406,3.9406,3.9406,3.9406,3.9406,3.9406,3.9406,3.9406,3.9406,3.9406,3.9406,3.9406,3.9406,3.9556,3.9855,4.0531,4.1209,4.1867,4.2526,4.3,4.329,4.329,4.329,4.329,4.329,4.329,4.329,4.329,4.329,4.329,4.329,4.329,4.329,4.329,4.329,4.329,4.329,4.329,4.329,4.329,4.329,4.329,4.329,4.329,4.329,4.329,4.329,4.329,4.329,4.329,4.329,4.329,4.329,4.2406,4.0511,4.1211,4.0838,3.9293,3.9293,3.8315,3.6405,3.6405,3.6405,0.0,0.0,0.0,0.0,0.0,0.0,0.0,0.0,0.0,0.0,0.0,0.0,0.0,0.0,0.0,0.0,0.0,0.0,0.0,0.0,0.0,0.0,0.0,0.0,0.0,0.0,0.0,0.0,0.0,3.5504,3.5504,3.5504,3.5504,3.5504,3.5504,3.5504,3.5504,3.5504,3.5504,3.5504,3.5504,3.5833,3.6479,3.6493,3.7182,3.835,3.8377,3.8766,3.9376,3.9391,3.9406,3.9406,3.9406,3.9406,3.9406,3.9406,3.9406,3.9406,3.9406,3.9406,3.9406,3.9406,3.984,4.0531,4.1209,4.1871,4.2526,4.313,4.329,4.329,4.329,4.329,4.329,4.329,4.329,4.329,4.329,4.329,4.329,4.329,4.329,4.329,4.329,4.329,4.329,4.329,4.329,4.329,4.329,4.329,4.329,4.329,4.329,4.329,4.329,4.329,4.329,4.329,4.329,4.329,4.329,4.329,4.2745,4.1566,4.1545,4.0397,3.8039,3.8085,3.7494,3.6405,3.6405,3.6405,2.0726,0.0,0.0,0.0,0.0,0.0,0.0,0.0,0.0,0.0,0.0,0.0,0.0,0.0,0.0,0.0,0.0,0.0,0.0,0.0,0.0,0.0,0.0,0.0,0.0,0.0,0.0,0.0,3.5504,3.5504,3.5504,3.5504,3.5504,3.5504,3.5504,3.5504,3.5504,3.5504,3.5504,3.5504,3.5504,3.5609,3.5789,3.6284,3.6688,3.7092,3.8005,3.8514,3.8706,3.9197,3.9406,3.9406,3.9406,3.9406,3.9406,3.9406,3.9406,3.9406,3.9406,3.9406,3.9406,3.9406,3.984,4.0531,4.1209,4.1871,4.2526,4.313,4.329,4.329,4.329,4.329,4.329,4.329,4.329,4.329,4.329,4.329,4.329,4.329,4.329,4.329,4.329,4.329,4.329,4.329,4.329,4.329,4.329,4.329,4.329,4.329,4.329,4.329,4.329,4.329,4.329,4.329,4.329,4.329,4.329,4.329,4.2386,4.0404,4.0361,3.9227,3.6873,3.7701,3.7494,3.6405,3.6405,3.6405,2.0847,0.0,0.0,0.0,0.0,0.0,0.0,0.0,0.0,0.0,0.0,0.0,0.0,0.0,0.0,0.0,0.0,0.0,0.0,0.0,0.0,0.0,0.0,0.0,0.0,0.0,0.0,3.5055,3.507,3.519,3.5489,3.5504,3.5504,3.5504,3.5504,3.5504,3.5504,3.5504,3.5504,3.5504,3.5504,3.5504,3.5519,3.5893,3.6254,3.6568,3.7539,3.8138,3.8437,3.9107,3.9406,3.9406,3.9406,3.9406,3.9406,3.9406,3.9406,3.9406,3.9406,3.9406,3.9406,3.9406,4.0053,4.0894,4.1283,4.2047,4.2851,4.3205,4.329,4.329,4.329,4.329,4.329,4.329,4.329,4.329,4.329,4.329,4.329,4.329,4.329,4.329,4.329,4.329,4.329,4.329,4.329,4.329,4.329,4.329,4.329,4.329,4.329,4.329,4.329,4.329,4.329,4.329,4.329,4.329,4.329,4.284,4.174,3.9942,3.9417,3.8234,3.6405,3.7057,3.7047,3.6405,3.6405,3.6405,2.1315,2.1844,0.0,0.0,0.0,0.0,2.7275,2.7707,0.0,0.0,0.0,0.0,0.0,0.0,0.0,0.0,0.0,0.0,0.0,0.0,0.0,0.0,0.0,0.0,0.0,3.3499,3.3754,3.4338,3.4458,3.4787,3.5474,3.5504,3.5504,3.5504,3.5504,3.5504,3.5504,3.5504,3.5504,3.5504,3.5504,3.5504,3.5504,3.5504,3.5833,3.6434,3.7105,3.7749,3.8365,3.9092,3.9406,3.9406,3.9406,3.9406,3.9406,3.9406,3.9406,3.9406,3.9406,3.9406,3.9406,3.9406,4.0307,4.1403,4.1403,4.2297,4.329,4.329,4.329,4.329,4.329,4.329,4.329,4.329,4.329,4.329,4.329,4.329,4.329,4.329,4.329,4.329,4.329,4.329,4.329,4.329,4.329,4.329,4.329,4.329,4.329,4.329,4.329,4.329,4.329,4.329,4.329,4.329,4.329,4.329,4.329,4.233,4.119,3.9921,3.8581,3.7415,3.6405,3.6405,3.6405,3.6405,3.6405,3.6405,2.2926,2.2872,2.2882,0.0,0.0,0.0,0.0,2.5315,0.0,0.0,0.0,0.0,0.0,0.0,0.0,0.0,0.0,0.0,0.0,0.0,0.0,0.0,0.0,0.0,0.0,3.3499,3.3544,3.3694,3.4203,3.4787,3.5474,3.5504,3.5504,3.5504,3.5504,3.5504,3.5504,3.5504,3.5504,3.5504,3.5504,3.5504,3.5504,3.5504,3.5579,3.5759,3.6894,3.7462,3.7704,3.8898,3.9406,3.9406,3.9406,3.9406,3.9406,3.9406,3.9406,3.9406,3.9406,3.9406,3.9406,3.9406,4.0307,4.1403,4.1403,4.2297,4.329,4.329,4.329,4.329,4.329,4.329,4.329,4.329,4.329,4.329,4.329,4.329,4.329,4.329,4.329,4.329,4.329,4.329,4.329,4.329,4.329,4.329,4.329,4.329,4.329,4.329,4.329,4.329,4.329,4.329,4.329,4.329,4.329,4.329,4.329,4.3095,4.2003,3.9942,3.7815,3.6628,3.6405,3.6405,3.6405,3.6405,3.6405,3.6405,2.3295,2.3385,2.3804,2.4448,0.0,0.0,0.0,0.0,0.0,0.0,0.0,0.0,0.0,0.0,0.0,0.0,0.0,0.0,0.0,0.0,0.0,0.0,0.0,0.0,0.0,3.2497,3.2632,3.2976,3.3934,3.4637,3.4982,3.5325,3.5504,3.5504,3.5504,3.5504,3.5504,3.5504,3.5504,3.5504,3.5504,3.5504,3.5504,3.5504,3.5504,3.5579,3.6851,3.7387,3.7492,3.8853,3.9406,3.9406,3.9406,3.9406,3.9406,3.9406,3.9406,3.9406,3.9406,3.9406,3.9406,3.9406,4.0307,4.1403,4.1403,4.2297,4.329,4.329,4.329,4.329,4.329,4.329,4.329,4.329,4.329,4.329,4.329,4.329,4.329,4.329,4.329,4.329,4.329,4.329,4.329,4.329,4.329,4.329,4.329,4.329,4.329,4.329,4.329,4.329,4.329,4.329,4.329,4.329,4.329,4.329,4.329,4.2745,4.1358,3.905,3.7861,3.7266,3.7266,3.6675,3.6405,3.6405,3.6405,3.6686,0.0,0.0,0.0,0.0,0.0,2.5472,0.0,0.0,0.0,0.0,0.0,0.0,0.0,0.0,0.0,0.0,0.0,0.0,0.0,0.0,0.0,0.0,0.0,0.0,0.0,3.1376,3.163,3.2437,3.338,3.4084,3.4488,3.5012,3.537,3.5504,3.5504,3.5504,3.5504,3.5504,3.5504,3.5504,3.5504,3.5504,3.5504,3.5504,3.5504,3.5564,3.6714,3.73,3.7477,3.8703,3.9287,3.9406,3.9406,3.9406,3.9406,3.9406,3.9406,3.9406,3.9406,3.9406,3.9406,3.9406,4.0307,4.1448,4.1703,4.2472,4.329,4.329,4.329,4.329,4.329,4.329,4.329,4.329,4.329,4.329,4.329,4.329,4.329,4.329,4.329,4.329,4.329,4.329,4.329,4.329,4.329,4.329,4.329,4.329,4.329,4.329,4.329,4.329,4.329,4.329,4.329,4.329,4.329,4.329,4.329,4.2208,4.0611,3.8491,3.8446,3.8334,3.8107,3.7415,3.6953,3.6732,3.6732,3.7219,0.0,0.0,0.0,0.0,2.732,0.0,0.0,0.0,0.0,0.0,0.0,0.0,0.0,0.0,0.0,0.0,0.0,0.0,0.0,0.0,0.0,0.0,0.0,0.0,0.0,0.0,3.1136,3.2407,3.2093,3.2617,3.4398,3.4563,3.4892,3.5489,3.5504,3.5504,3.5504,3.5504,3.5504,3.5504,3.5504,3.5504,3.5504,3.5504,3.5504,3.5549,3.6267,3.6911,3.7464,3.8197,3.8871,3.9406,3.9406,3.9406,3.9406,3.9406,3.9406,3.9406,3.9406,3.9406,3.9406,3.9406,4.0307,4.1613,4.2741,4.3205,4.329,4.329,4.329,4.329,4.329,4.329,4.329,4.329,4.329,4.329,4.329,4.329,4.329,4.329,4.329,4.329,4.329,4.329,4.329,4.329,4.329,4.329,4.329,4.329,4.329,4.329,4.329,4.329,4.329,4.329,4.329,4.329,4.329,4.329,4.329,4.2208,4.1,3.9724,3.9703,3.9161,3.8107,3.9028,3.8939,3.7916,3.7916,3.7984,0.0,0.0,0.0,0.0,0.0,0.0,0.0,0.0,2.4466,0.0,0.0,0.0,0.0,0.0,0.0,0.0,0.0,0.0,0.0,0.0,0.0,0.0,0.0,0.0,0.0,0.0,0.0,0.0,0.0,3.2213,3.3844,3.4278,3.4622,3.4922,3.5295,3.5504,3.5504,3.5504,3.5504,3.5504,3.5504,3.5504,3.5504,3.5504,3.5504,3.5549,3.6207,3.6836,3.7464,3.8123,3.8796,3.9406,3.9406,3.9406,3.9406,3.9406,3.9406,3.9406,3.9406,3.9406,3.9526,4.0307,4.0954,4.1643,4.2906,4.329,4.329,4.329,4.329,4.329,4.329,4.329,4.329,4.329,4.329,4.329,4.329,4.329,4.329,4.329,4.329,4.329,4.329,4.329,4.329,4.329,4.329,4.329,4.329,4.329,4.329,4.329,4.329,4.329,4.329,4.329,4.329,4.329,4.329,4.329,4.329,4.284,4.205,4.0916,4.0894,4.0646,4.0139,3.9972,3.9972,4.0118,3.9456,3.95,2.8787,0.0,0.0,0.0,0.0,0.0,0.0,0.0,0.0,0.0,0.0,0.0,0.0,0.0,0.0,0.0,0.0,0.0,0.0,0.0,0.0,0.0,0.0,0.0,0.0,0.0,0.0,0.0,0.0,0.0,3.341,3.4143,3.4503,3.4503,3.5145,3.5504,3.5504,3.5504,3.5504,3.5504,3.5504,3.5504,3.5504,3.5504,3.5504,3.5549,3.6207,3.6836,3.7464,3.8123,3.8796,3.9406,3.9406,3.9406,3.9406,3.9406,3.9406,3.9406,3.9406,3.9406,3.9616,4.0969,4.1403,4.1643,4.2906,4.329,4.329,4.329,4.329,4.329,4.329,4.329,4.329,4.329,4.329,4.329,4.329,4.329,4.329,4.329,4.329,4.329,4.329,4.329,4.329,4.329,4.329,4.329,4.329,4.329,4.329,4.329,4.329,4.329,4.329,4.329,4.329,4.329,4.329,4.329,4.329,4.329,4.2765,4.1608,4.1912,4.1912,4.1587,4.1078,4.1267,4.205,4.0894,4.081,0.0,0.0,0.0,2.8421,0.0,0.0,0.0,0.0,2.633,0.0,0.0,0.0,0.0,0.0,0.0,2.5797,0.0,0.0,0.0,0.0,0.0,0.0,0.0,0.0,0.0,0.0,0.0,0.0,0.0,0.0,3.338,3.4143,3.4503,3.4503,3.5145,3.5504,3.5504,3.5504,3.5504,3.5504,3.5504,3.5504,3.5504,3.5504,3.5504,3.5549,3.6207,3.6836,3.7464,3.8123,3.8796,3.9406,3.9406,3.9406,3.9406,3.9406,3.9406,3.9406,3.9406,3.9406,3.9616,4.0969,4.1403,4.1643,4.2906,4.329,4.329,4.329,4.329,4.329,4.329,4.329,4.329,4.329,4.329,4.329,4.329,4.329,4.329,4.329,4.329,4.329,4.329,4.329,4.329,4.329,4.329,4.329,4.329,4.329,4.329,4.329,4.329,4.329,4.329,4.329,4.329,4.329,4.329,4.329,4.329,4.329,4.2765,4.1608,4.2684,4.2705,4.1587,4.2684,4.321,4.323,4.207,4.1566,0.0,0.0,3.1945,2.9525,0.0,0.0,0.0,0.0,0.0,0.0,0.0,0.0,0.0,0.0,2.7315,2.6408,2.645,0.0,0.0,0.0,0.0,0.0,0.0,0.0,0.0,0.0,0.0,0.0,3.1675,0.0,0.0,3.3724,3.3844,3.3844,3.4488,3.504,3.5504,3.5504,3.5504,3.5504,3.5504,3.5504,3.5504,3.5504,3.5504,3.5519,3.5744,3.6432,3.7419,3.7644,3.8389,3.9406,3.9406,3.9406,3.9406,3.9406,3.9406,3.9406,3.9406,3.969,4.0217,4.1119,4.1688,4.2211,4.3055,4.329,4.329,4.329,4.329,4.329,4.329,4.329,4.329,4.329,4.329,4.329,4.329,4.329,4.329,4.329,4.329,4.329,4.329,4.329,4.329,4.329,4.329,4.329,4.329,4.329,4.329,4.329,4.329,4.329,4.329,4.329,4.329,4.329,4.329,4.329,4.329,4.329,4.3115,4.2725,4.3095,4.3115,4.2725,4.3115,4.329,4.329,4.29,4.2725,3.2771,3.2718,0.0,3.0096,2.9593,0.0,2.6811,0.0,0.0,0.0,0.0,0.0,0.0,0.0,0.0,2.7767,2.7063,0.0,0.0,0.0,0.0,0.0,0.0,0.0,0.0,0.0,3.0777,3.2377,3.1465,0.0,0.0,0.0,3.3604,3.3859,3.4263,3.4817,3.5489,3.5504,3.5504,3.5504,3.5504,3.5504,3.5504,3.5504,3.5504,3.5519,3.5744,3.6447,3.7419,3.7659,3.8422,3.9406,3.9406,3.9406,3.9406,3.9406,3.9406,3.9406,3.9406,3.9825,4.0502,4.1194,4.1837,4.2515,4.3115,4.329,4.329,4.329,4.329,4.329,4.329,4.329,4.329,4.329,4.329,4.329,4.329,4.329,4.329,4.329,4.329,4.329,4.329,4.329,4.329,4.329,4.329,4.329,4.329,4.329,4.329,4.329,4.329,4.329,4.329,4.329,4.329,4.329,4.329,4.329,4.329,4.329,4.329,4.329,4.329,4.329,4.329,4.329,4.329,4.329,4.329,4.329]}]]